FDX12 VHHH-PANC

Flight info

Callsign FDX12
Flight time 9h 28m
Altitude 33000
Route DALOL V631 ENVAR M750 INVAM/N0486F350 M750 MOMPA Y451 HKC Y45 OOITA Y40 MYE Y33 LABEL Y121 SWING Y88 DAIGO Y889 OATIS R580 OMOTO/N0488F370 R580 ONEIL G469 PINTT A590 POETT/N0486F390 A590 HAMND NEELL7
Aircraft MD11/H-SDE1E2E3FGHIJ2J3J4J5M1RWXY/LB1D1

Departure

Time 2026-05-05 05:25
Airport Hong Kong International Airport (VHHH)

Arrival

Time 2026-05-05 14:53
Airport Ted Stevens Anchorage International Airport (PANC)
Time Latitude Longitude Altitude Speed Heading
2026-05-05 04:48 22.30098 113.92210 40 ft 0 kts 342°
2026-05-05 05:14 22.30085 113.92215 40 ft 2 kts 341°
2026-05-05 05:14 22.30071 113.92220 40 ft 2 kts 341°
2026-05-05 05:14 22.30062 113.92223 40 ft 2 kts 341°
2026-05-05 05:15 22.30049 113.92230 40 ft 2 kts 324°
2026-05-05 05:15 22.30038 113.92240 40 ft 2 kts 311°
2026-05-05 05:15 22.30029 113.92252 40 ft 2 kts 297°
2026-05-05 05:15 22.30025 113.92265 40 ft 2 kts 285°
2026-05-05 05:16 22.30022 113.92281 40 ft 2 kts 271°
2026-05-05 05:16 22.30023 113.92297 40 ft 2 kts 257°
2026-05-05 05:16 22.30025 113.92304 40 ft 0 kts 251°
2026-05-05 05:16 22.30025 113.92305 40 ft 0 kts 251°
2026-05-05 05:18 22.30021 113.92291 40 ft 3 kts 251°
2026-05-05 05:18 22.30008 113.92251 40 ft 7 kts 251°
2026-05-05 05:18 22.29986 113.92181 40 ft 12 kts 251°
2026-05-05 05:18 22.29978 113.92093 40 ft 11 kts 316°
2026-05-05 05:19 22.30067 113.92052 40 ft 16 kts 341°
2026-05-05 05:19 22.30131 113.91989 40 ft 14 kts 276°
2026-05-05 05:19 22.30109 113.91866 40 ft 18 kts 249°
2026-05-05 05:19 22.30056 113.91718 40 ft 23 kts 251°
2026-05-05 05:20 22.30001 113.91538 39 ft 26 kts 250°
2026-05-05 05:20 22.29938 113.91348 40 ft 27 kts 251°
2026-05-05 05:20 22.29877 113.91156 40 ft 26 kts 251°
2026-05-05 05:20 22.29817 113.90970 40 ft 26 kts 251°
2026-05-05 05:21 22.29755 113.90780 40 ft 27 kts 251°
2026-05-05 05:21 22.29693 113.90586 40 ft 27 kts 251°
2026-05-05 05:21 22.29631 113.90393 39 ft 27 kts 251°
2026-05-05 05:21 22.29568 113.90198 39 ft 27 kts 251°
2026-05-05 05:22 22.29506 113.90005 39 ft 25 kts 251°
2026-05-05 05:22 22.29504 113.89874 39 ft 16 kts 307°
2026-05-05 05:22 22.29583 113.89825 39 ft 10 kts 340°
2026-05-05 05:22 22.29630 113.89836 39 ft 6 kts 63°
2026-05-05 05:23 22.29644 113.89878 39 ft 6 kts 69°
2026-05-05 05:23 22.29651 113.89898 39 ft 0 kts 70°
2026-05-05 05:23 22.29651 113.89899 39 ft 0 kts 70°
2026-05-05 05:23 22.29671 113.89961 40 ft 31 kts 71°
2026-05-05 05:24 22.29814 113.90402 40 ft 93 kts 71°
2026-05-05 05:24 22.30098 113.91284 40 ft 150 kts 70°
2026-05-05 05:24 22.30488 113.92512 55 ft 193 kts 71°
2026-05-05 05:24 22.30924 113.93903 522 ft 197 kts 71°
2026-05-05 05:25 22.31365 113.95293 1220 ft 192 kts 71°
2026-05-05 05:25 22.31791 113.96570 2050 ft 180 kts 71°
2026-05-05 05:25 22.32224 113.97875 2444 ft 191 kts 72°
2026-05-05 05:25 22.32663 113.99226 2976 ft 192 kts 73°
2026-05-05 05:26 22.33113 114.00639 3218 ft 212 kts 73°
2026-05-05 05:26 22.33605 114.02237 3490 ft 230 kts 76°
2026-05-05 05:26 22.33492 114.03948 3934 ft 234 kts 123°
2026-05-05 05:26 22.32462 114.05212 4661 ft 232 kts 143°
2026-05-05 05:27 22.31082 114.06265 5107 ft 246 kts 149°
2026-05-05 05:27 22.29684 114.07188 6071 ft 239 kts 152°
2026-05-05 05:27 22.26598 114.08688 7423 ft 240 kts 178°
2026-05-05 05:28 22.24873 114.08772 7907 ft 251 kts 184°
2026-05-05 05:28 22.23097 114.08736 8407 ft 268 kts 185°
2026-05-05 05:28 22.21128 114.08678 8780 ft 288 kts 184°
2026-05-05 05:28 22.19174 114.08642 9798 ft 283 kts 183°
2026-05-05 05:29 22.17161 114.08985 10085 ft 311 kts 159°
2026-05-05 05:29 22.15255 114.10337 10345 ft 340 kts 137°
2026-05-05 05:29 22.13807 114.12444 10567 ft 368 kts 120°
2026-05-05 05:29 22.12654 114.15013 10714 ft 395 kts 116°
2026-05-05 05:30 22.11482 114.17801 10840 ft 420 kts 116°
2026-05-05 05:30 22.10230 114.20688 11267 ft 432 kts 117°
2026-05-05 05:30 22.08880 114.23583 12174 ft 431 kts 122°
2026-05-05 05:30 22.07170 114.26240 12854 ft 433 kts 133°
2026-05-05 05:31 22.05040 114.28474 13515 ft 434 kts 144°
2026-05-05 05:31 22.02585 114.30432 14189 ft 438 kts 148°
2026-05-05 05:31 22.00096 114.32302 14782 ft 444 kts 148°
2026-05-05 05:31 21.97537 114.34236 15475 ft 449 kts 147°
2026-05-05 05:32 21.95012 114.36189 16118 ft 453 kts 147°
2026-05-05 05:32 21.92447 114.38188 16754 ft 458 kts 147°
2026-05-05 05:32 21.89856 114.40228 17389 ft 463 kts 147°
2026-05-05 05:32 21.87324 114.42426 17963 ft 471 kts 139°
2026-05-05 05:33 21.85181 114.45099 18558 ft 480 kts 126°
2026-05-05 05:33 21.83564 114.48304 19099 ft 490 kts 112°
2026-05-05 05:33 21.82531 114.51809 19639 ft 496 kts 106°
2026-05-05 05:33 21.81691 114.55402 20199 ft 502 kts 104°
2026-05-05 05:34 21.80857 114.59064 20729 ft 507 kts 105°
2026-05-05 05:34 21.79986 114.62746 21331 ft 511 kts 105°
2026-05-05 05:34 21.79067 114.66432 21841 ft 516 kts 107°
2026-05-05 05:34 21.78102 114.70155 22352 ft 521 kts 107°
2026-05-05 05:35 21.77118 114.73917 22890 ft 526 kts 107°
2026-05-05 05:35 21.76125 114.77718 23423 ft 531 kts 107°
2026-05-05 05:35 21.75210 114.81530 23958 ft 535 kts 103°
2026-05-05 05:35 21.74564 114.85505 24468 ft 540 kts 97°
2026-05-05 05:36 21.74325 114.89538 24979 ft 545 kts 91°
2026-05-05 05:36 21.74307 114.93600 25505 ft 549 kts 90°
2026-05-05 05:36 21.74349 114.97697 25968 ft 555 kts 89°
2026-05-05 05:36 21.74381 115.01892 26517 ft 558 kts 90°
2026-05-05 05:37 21.74386 115.06049 27048 ft 563 kts 90°
2026-05-05 05:37 21.74378 115.10268 27513 ft 568 kts 90°
2026-05-05 05:37 21.74366 115.14511 28140 ft 570 kts 90°
2026-05-05 05:37 21.74355 115.18739 28958 ft 567 kts 90°
2026-05-05 05:38 21.74344 115.22973 29776 ft 565 kts 90°
2026-05-05 05:38 21.74331 115.27127 30578 ft 563 kts 90°
2026-05-05 05:38 21.74311 115.31308 31351 ft 560 kts 90°
2026-05-05 05:38 21.74292 115.35484 32128 ft 557 kts 90°
2026-05-05 05:39 21.74279 115.39643 32664 ft 559 kts 90°
2026-05-05 05:39 21.74273 115.43838 32717 ft 559 kts 90°
2026-05-05 05:39 21.74256 115.52076 32744 ft 549 kts 90°
2026-05-05 05:40 21.74232 115.60326 32772 ft 554 kts 90°
2026-05-05 05:40 21.74154 115.68587 32711 ft 554 kts 91°
2026-05-05 05:41 21.74075 115.76801 32720 ft 554 kts 90°
2026-05-05 05:41 21.74016 115.85094 32730 ft 555 kts 90°
2026-05-05 05:42 21.73955 115.93355 32715 ft 554 kts 90°
2026-05-05 05:42 21.73898 116.01643 32738 ft 555 kts 90°
2026-05-05 05:43 21.73848 116.09920 32727 ft 555 kts 90°
2026-05-05 05:43 21.73800 116.18134 32729 ft 553 kts 90°
2026-05-05 05:44 21.73757 116.26416 32733 ft 553 kts 90°
2026-05-05 05:44 21.73719 116.34623 32735 ft 553 kts 90°
2026-05-05 05:45 21.73685 116.42867 32739 ft 553 kts 90°
2026-05-05 05:45 21.73641 116.51119 32729 ft 554 kts 91°
2026-05-05 05:46 21.73535 116.59394 32732 ft 553 kts 91°
2026-05-05 05:46 21.73463 116.67638 32727 ft 554 kts 91°
2026-05-05 05:47 21.73534 116.75919 32692 ft 553 kts 84°
2026-05-05 05:47 21.75202 116.83926 32760 ft 552 kts 68°
2026-05-05 05:48 21.78037 116.91539 32743 ft 551 kts 66°
2026-05-05 05:48 21.80884 116.99166 32696 ft 551 kts 67°
2026-05-05 05:49 21.83655 117.06890 32733 ft 553 kts 67°
2026-05-05 05:49 21.86400 117.14586 32714 ft 552 kts 67°
2026-05-05 05:50 21.89155 117.22281 32734 ft 553 kts 67°
2026-05-05 05:50 21.91918 117.29971 32737 ft 553 kts 67°
2026-05-05 05:51 21.94708 117.37693 32724 ft 552 kts 67°
2026-05-05 05:51 21.97498 117.45395 32725 ft 553 kts 66°
2026-05-05 05:52 22.00784 117.52821 32720 ft 550 kts 57°
2026-05-05 05:52 22.04744 117.59802 32762 ft 549 kts 55°
2026-05-05 05:53 22.08763 117.66833 32711 ft 549 kts 56°
2026-05-05 05:53 22.12708 117.73832 32698 ft 550 kts 56°
2026-05-05 05:54 22.16696 117.80917 32741 ft 553 kts 56°
2026-05-05 05:54 22.20653 117.87940 32716 ft 551 kts 56°
2026-05-05 05:55 22.24642 117.94995 32738 ft 552 kts 56°
2026-05-05 05:55 22.28664 118.02073 32737 ft 552 kts 55°
2026-05-05 05:56 22.32757 118.09013 32746 ft 551 kts 55°
2026-05-05 05:56 22.36841 118.16028 32741 ft 551 kts 55°
2026-05-05 05:57 22.40887 118.23007 32741 ft 551 kts 55°
2026-05-05 05:57 22.44910 118.30087 32750 ft 551 kts 56°
2026-05-05 05:58 22.48885 118.37171 32741 ft 552 kts 56°
2026-05-05 05:58 22.52879 118.44229 32748 ft 552 kts 56°
2026-05-05 05:59 22.56870 118.51278 32748 ft 552 kts 56°
2026-05-05 05:59 22.60901 118.58347 32746 ft 552 kts 55°
2026-05-05 06:00 22.64881 118.65408 32749 ft 553 kts 56°
2026-05-05 06:00 22.68878 118.72513 32721 ft 553 kts 56°
2026-05-05 06:01 22.72874 118.79591 32724 ft 553 kts 56°
2026-05-05 06:01 22.76900 118.86709 32758 ft 554 kts 55°
2026-05-05 06:02 22.80932 118.93831 32733 ft 552 kts 55°
2026-05-05 06:02 22.84924 119.00880 32747 ft 552 kts 56°
2026-05-05 06:03 22.88953 119.07986 32768 ft 555 kts 55°
2026-05-05 06:03 22.93001 119.15117 32738 ft 555 kts 55°
2026-05-05 06:04 22.97039 119.22228 32756 ft 555 kts 55°
2026-05-05 06:04 23.01088 119.29362 32744 ft 556 kts 55°
2026-05-05 06:05 23.05080 119.36488 32747 ft 558 kts 56°
2026-05-05 06:05 23.09115 119.43727 32759 ft 558 kts 55°
2026-05-05 06:06 23.13158 119.50915 32741 ft 559 kts 55°
2026-05-05 06:06 23.17169 119.58076 32752 ft 559 kts 55°
2026-05-05 06:07 23.21220 119.65274 32736 ft 560 kts 56°
2026-05-05 06:07 23.25247 119.72521 32725 ft 561 kts 56°
2026-05-05 06:08 23.29278 119.79792 32710 ft 559 kts 56°
2026-05-05 06:08 23.33297 119.86991 32748 ft 561 kts 56°
2026-05-05 06:09 23.37800 119.93845 32708 ft 554 kts 44°
2026-05-05 06:09 23.43311 119.99719 32793 ft 553 kts 38°
2026-05-05 06:10 23.48913 120.05393 32717 ft 552 kts 39°
2026-05-05 06:10 23.54481 120.11156 32754 ft 552 kts 39°
2026-05-05 06:11 23.60021 120.16913 32754 ft 553 kts 39°
2026-05-05 06:11 23.65597 120.22705 32741 ft 553 kts 39°
2026-05-05 06:12 23.71176 120.28490 32765 ft 554 kts 38°
2026-05-05 06:12 23.76769 120.34280 32761 ft 555 kts 39°
2026-05-05 06:13 23.82384 120.40087 32771 ft 555 kts 38°
2026-05-05 06:13 23.87973 120.45855 32774 ft 555 kts 39°
2026-05-05 06:14 23.93599 120.51664 32780 ft 557 kts 38°
2026-05-05 06:14 23.99158 120.57510 32789 ft 555 kts 39°
2026-05-05 06:15 24.04678 120.63402 32790 ft 556 kts 39°
2026-05-05 06:15 24.10241 120.69306 32790 ft 557 kts 39°
2026-05-05 06:16 24.15764 120.75169 32782 ft 557 kts 40°
2026-05-05 06:16 24.21336 120.81083 32840 ft 559 kts 40°
2026-05-05 06:17 24.26920 120.87012 32840 ft 559 kts 39°
2026-05-05 06:17 24.32506 120.92931 32882 ft 559 kts 39°
2026-05-05 06:18 24.38084 120.98850 32905 ft 560 kts 40°
2026-05-05 06:18 24.43434 121.05145 32937 ft 565 kts 46°
2026-05-05 06:19 24.48333 121.11887 32954 ft 565 kts 49°
2026-05-05 06:19 24.53162 121.18658 32955 ft 566 kts 47°
2026-05-05 06:20 24.58061 121.25410 32938 ft 566 kts 47°
2026-05-05 06:20 24.62959 121.32205 32910 ft 568 kts 48°
2026-05-05 06:21 24.67853 121.39009 32868 ft 568 kts 47°
2026-05-05 06:21 24.72774 121.45807 32847 ft 568 kts 47°
2026-05-05 06:22 24.77666 121.52585 32836 ft 567 kts 47°
2026-05-05 06:22 24.82589 121.59404 32840 ft 570 kts 47°
2026-05-05 06:23 24.87496 121.66177 32803 ft 570 kts 48°
2026-05-05 06:23 24.92526 121.72952 32769 ft 571 kts 45°
2026-05-05 06:24 24.97797 121.79519 32847 ft 574 kts 45°
2026-05-05 06:24 25.03005 121.86138 32795 ft 571 kts 46°
2026-05-05 06:25 25.08180 121.92773 32817 ft 572 kts 46°
2026-05-05 06:25 25.13349 121.99386 32800 ft 573 kts 46°
2026-05-05 06:26 25.18515 122.06027 32786 ft 571 kts 47°
2026-05-05 06:26 25.23640 122.12745 32816 ft 570 kts 46°
2026-05-05 06:27 25.31288 122.22728 32793 ft 570 kts 46°
2026-05-05 06:28 25.36435 122.29424 32842 ft 572 kts 46°
2026-05-05 06:28 25.41589 122.36140 32802 ft 570 kts 46°
2026-05-05 06:29 25.46687 122.42775 32820 ft 572 kts 46°
2026-05-05 06:29 25.51845 122.49476 32820 ft 570 kts 46°
2026-05-05 06:30 25.57007 122.56151 32825 ft 571 kts 46°
2026-05-05 06:30 25.62093 122.62829 32822 ft 572 kts 47°
2026-05-05 06:31 25.67237 122.69576 32808 ft 571 kts 46°
2026-05-05 06:31 25.72373 122.76273 32808 ft 571 kts 47°
2026-05-05 06:32 25.77509 122.82987 32830 ft 571 kts 46°
2026-05-05 06:32 25.82626 122.89665 32824 ft 571 kts 46°
2026-05-05 06:33 25.87767 122.96365 32851 ft 572 kts 46°
2026-05-05 06:33 25.92940 123.03104 32821 ft 570 kts 47°
2026-05-05 06:34 25.98037 123.09840 32849 ft 573 kts 47°
2026-05-05 06:34 26.03140 123.16641 32854 ft 574 kts 47°
2026-05-05 06:35 26.08267 123.23456 32847 ft 575 kts 47°
2026-05-05 06:35 26.13389 123.30239 32839 ft 575 kts 47°
2026-05-05 06:36 26.18527 123.37056 32851 ft 575 kts 47°
2026-05-05 06:36 26.23657 123.43845 32861 ft 576 kts 47°
2026-05-05 06:37 26.28814 123.50666 32852 ft 577 kts 47°
2026-05-05 06:37 26.33957 123.57469 32870 ft 576 kts 47°
2026-05-05 06:38 26.39143 123.64317 32867 ft 578 kts 47°
2026-05-05 06:38 26.44324 123.71170 32830 ft 577 kts 48°
2026-05-05 06:39 26.49441 123.77998 32876 ft 578 kts 49°
2026-05-05 06:39 26.54586 123.84921 32851 ft 580 kts 48°
2026-05-05 06:40 26.59740 123.91808 32881 ft 580 kts 48°
2026-05-05 06:40 26.64922 123.98743 32864 ft 580 kts 48°
2026-05-05 06:41 26.70093 124.05663 32888 ft 581 kts 49°
2026-05-05 06:41 26.75240 124.12598 32862 ft 580 kts 49°
2026-05-05 06:42 26.80348 124.19465 32891 ft 578 kts 48°
2026-05-05 06:42 26.85500 124.26377 32869 ft 578 kts 49°
2026-05-05 06:43 26.90641 124.33286 32886 ft 578 kts 48°
2026-05-05 06:43 26.95791 124.40187 32899 ft 578 kts 49°
2026-05-05 06:44 27.00935 124.47094 32880 ft 576 kts 49°
2026-05-05 06:44 27.06012 124.54015 32889 ft 577 kts 49°
2026-05-05 06:45 27.11120 124.60975 32894 ft 578 kts 49°
2026-05-05 06:45 27.16231 124.67906 32851 ft 577 kts 49°
2026-05-05 06:46 27.21343 124.74854 32877 ft 576 kts 49°
2026-05-05 06:46 27.26423 124.81739 32872 ft 576 kts 49°
2026-05-05 06:47 27.31541 124.88676 32892 ft 576 kts 49°
2026-05-05 06:47 27.36682 124.95642 32901 ft 578 kts 49°
2026-05-05 06:48 27.41810 125.02586 32905 ft 578 kts 49°
2026-05-05 06:48 27.46914 125.09545 32896 ft 579 kts 49°
2026-05-05 06:49 27.52008 125.16490 32910 ft 579 kts 49°
2026-05-05 06:49 27.57152 125.23492 32900 ft 580 kts 49°
2026-05-05 06:50 27.62270 125.30450 32886 ft 578 kts 49°
2026-05-05 06:50 27.67400 125.37414 32911 ft 580 kts 49°
2026-05-05 06:51 27.72573 125.44445 32894 ft 579 kts 49°
2026-05-05 06:51 27.77723 125.51421 32906 ft 581 kts 49°
2026-05-05 06:52 27.82856 125.58386 32900 ft 582 kts 49°
2026-05-05 06:52 27.88037 125.65407 32908 ft 582 kts 49°
2026-05-05 06:53 27.93234 125.72434 32866 ft 583 kts 49°
2026-05-05 06:53 27.98354 125.79491 32907 ft 584 kts 50°
2026-05-05 06:54 28.03484 125.86630 32889 ft 583 kts 49°
2026-05-05 06:54 28.08607 125.93732 32913 ft 585 kts 49°
2026-05-05 06:55 28.13753 126.00849 32894 ft 584 kts 49°
2026-05-05 06:55 28.18889 126.07944 32888 ft 583 kts 49°
2026-05-05 06:56 28.24013 126.15021 32905 ft 583 kts 49°
2026-05-05 06:56 28.29146 126.22105 32904 ft 582 kts 49°
2026-05-05 06:57 28.34289 126.29195 32922 ft 582 kts 49°
2026-05-05 06:57 28.39422 126.36276 32936 ft 582 kts 49°
2026-05-05 06:58 28.44572 126.43362 32905 ft 581 kts 49°
2026-05-05 06:58 28.49695 126.50481 32923 ft 583 kts 50°
2026-05-05 06:59 28.54762 126.57661 32916 ft 582 kts 50°
2026-05-05 06:59 28.59832 126.64827 32916 ft 584 kts 50°
2026-05-05 07:00 28.64928 126.71995 32893 ft 582 kts 50°
2026-05-05 07:00 28.70015 126.79147 32914 ft 585 kts 50°
2026-05-05 07:01 28.75135 126.86356 32915 ft 586 kts 50°
2026-05-05 07:01 28.80265 126.93556 32920 ft 587 kts 50°
2026-05-05 07:02 28.85390 127.00741 32925 ft 588 kts 50°
2026-05-05 07:02 28.90553 127.07997 32931 ft 589 kts 50°
2026-05-05 07:03 28.95708 127.15211 32931 ft 589 kts 50°
2026-05-05 07:03 29.00853 127.22443 32930 ft 588 kts 51°
2026-05-05 07:04 29.05950 127.29787 32939 ft 588 kts 51°
2026-05-05 07:04 29.11003 127.37069 32919 ft 587 kts 51°
2026-05-05 07:05 29.16080 127.44350 32917 ft 586 kts 50°
2026-05-05 07:05 29.21146 127.51594 32940 ft 586 kts 50°
2026-05-05 07:06 29.26240 127.58896 32910 ft 585 kts 50°
2026-05-05 07:06 29.31316 127.66143 32942 ft 584 kts 51°
2026-05-05 07:07 29.36381 127.73394 32892 ft 582 kts 50°
2026-05-05 07:07 29.41437 127.80609 32934 ft 585 kts 51°
2026-05-05 07:08 29.46512 127.87846 32927 ft 583 kts 51°
2026-05-05 07:08 29.51578 127.95075 32930 ft 583 kts 51°
2026-05-05 07:09 29.56602 128.02377 32934 ft 582 kts 51°
2026-05-05 07:09 29.61577 128.09665 32930 ft 582 kts 52°
2026-05-05 07:10 29.66575 128.16981 32932 ft 583 kts 51°
2026-05-05 07:10 29.71588 128.24293 32934 ft 582 kts 51°
2026-05-05 07:11 29.76587 128.31583 32943 ft 583 kts 51°
2026-05-05 07:11 29.81590 128.38875 32928 ft 584 kts 51°
2026-05-05 07:12 29.86616 128.46193 32962 ft 584 kts 50°
2026-05-05 07:12 29.91636 128.53488 32935 ft 584 kts 51°
2026-05-05 07:13 29.96679 128.60825 32955 ft 584 kts 51°
2026-05-05 07:13 30.01738 128.68167 32951 ft 587 kts 51°
2026-05-05 07:14 30.06777 128.75517 32888 ft 585 kts 52°
2026-05-05 07:14 30.11782 128.82951 32963 ft 588 kts 52°
2026-05-05 07:15 30.16822 128.90395 32899 ft 587 kts 51°
2026-05-05 07:15 30.21862 128.97809 32976 ft 589 kts 51°
2026-05-05 07:16 30.26883 129.05260 32980 ft 589 kts 52°
2026-05-05 07:16 30.31854 129.12750 32947 ft 587 kts 52°
2026-05-05 07:17 30.36825 129.20235 32966 ft 588 kts 52°
2026-05-05 07:17 30.41797 129.27689 32983 ft 589 kts 51°
2026-05-05 07:18 30.46814 129.35204 32952 ft 587 kts 51°
2026-05-05 07:18 30.51814 129.42685 32966 ft 589 kts 51°
2026-05-05 07:19 30.56805 129.50150 32970 ft 590 kts 51°
2026-05-05 07:19 30.61845 129.57680 32953 ft 589 kts 51°
2026-05-05 07:20 30.66855 129.65167 32960 ft 589 kts 51°
2026-05-05 07:20 30.71889 129.72667 32919 ft 590 kts 51°
2026-05-05 07:21 30.76906 129.80185 32957 ft 590 kts 51°
2026-05-05 07:21 30.81884 129.87721 32925 ft 590 kts 50°
2026-05-05 07:22 30.87722 129.94315 32958 ft 585 kts 32°
2026-05-05 07:22 30.94552 129.99577 33009 ft 587 kts 28°
2026-05-05 07:23 31.01381 130.04730 32927 ft 585 kts 29°
2026-05-05 07:23 31.08108 130.09984 32980 ft 585 kts 30°
2026-05-05 07:24 31.14850 130.15282 32947 ft 586 kts 30°
2026-05-05 07:24 31.21622 130.20604 32947 ft 582 kts 29°
2026-05-05 07:25 31.28329 130.25854 32962 ft 584 kts 30°
2026-05-05 07:25 31.35074 130.31133 32973 ft 584 kts 29°
2026-05-05 07:26 31.41845 130.36420 32982 ft 584 kts 29°
2026-05-05 07:26 31.48566 130.41675 32979 ft 583 kts 29°
2026-05-05 07:27 31.55300 130.46931 32987 ft 582 kts 29°
2026-05-05 07:27 31.62039 130.52208 33007 ft 584 kts 29°
2026-05-05 07:28 31.68719 130.57515 32981 ft 580 kts 28°
2026-05-05 07:28 31.75522 130.62596 32997 ft 578 kts 25°
2026-05-05 07:29 31.82427 130.67514 32988 ft 582 kts 26°
2026-05-05 07:29 31.89272 130.72530 32964 ft 580 kts 26°
2026-05-05 07:30 31.96120 130.77560 32964 ft 580 kts 27°
2026-05-05 07:30 32.06403 130.85075 32999 ft 578 kts 26°
2026-05-05 07:31 32.13211 130.90050 32987 ft 580 kts 26°
2026-05-05 07:31 32.20085 130.94946 32973 ft 580 kts 25°
2026-05-05 07:32 32.25849 130.99091 33013 ft 579 kts 26°
2026-05-05 07:32 32.33847 131.04936 32996 ft 582 kts 26°
2026-05-05 07:33 32.39581 131.09105 33022 ft 582 kts 26°
2026-05-05 07:33 32.47584 131.14925 33004 ft 581 kts 26°
2026-05-05 07:34 32.54417 131.20041 33035 ft 583 kts 27°
2026-05-05 07:34 32.61253 131.25207 33012 ft 581 kts 26°
2026-05-05 07:35 32.66927 131.29385 33018 ft 580 kts 26°
2026-05-05 07:35 32.74918 131.35349 33028 ft 582 kts 27°
2026-05-05 07:36 32.81743 131.40518 33029 ft 581 kts 26°
2026-05-05 07:36 32.88608 131.45528 33026 ft 579 kts 25°
2026-05-05 07:37 32.95472 131.50562 33041 ft 580 kts 26°
2026-05-05 07:37 33.02260 131.55631 33029 ft 581 kts 26°
2026-05-05 07:38 33.09110 131.60724 33026 ft 579 kts 25°
2026-05-05 07:38 33.15953 131.65788 32997 ft 578 kts 26°
2026-05-05 07:39 33.22474 131.71455 32975 ft 587 kts 40°
2026-05-05 07:39 33.25227 131.75061 33041 ft 593 kts 51°
2026-05-05 07:39 33.27612 131.79028 33091 ft 595 kts 55°
2026-05-05 07:40 33.31408 131.85895 33020 ft 593 kts 56°
2026-05-05 07:40 33.36813 131.95393 33055 ft 594 kts 53°
2026-05-05 07:41 33.41576 132.03432 33025 ft 594 kts 53°
2026-05-05 07:41 33.46319 132.11461 33036 ft 595 kts 53°
2026-05-05 07:42 33.50460 132.18085 33055 ft 594 kts 50°
2026-05-05 07:42 33.56337 132.27191 33039 ft 594 kts 51°
2026-05-05 07:43 33.61312 132.35065 33055 ft 596 kts 50°
2026-05-05 07:43 33.66301 132.42958 33045 ft 595 kts 50°
2026-05-05 07:44 33.71336 132.50906 33060 ft 596 kts 50°
2026-05-05 07:44 33.76355 132.58787 33046 ft 596 kts 50°
2026-05-05 07:45 33.81297 132.66696 33032 ft 599 kts 55°
2026-05-05 07:45 33.85025 132.75607 33037 ft 597 kts 73°
2026-05-05 07:46 33.87513 132.85083 33095 ft 600 kts 75°
2026-05-05 07:46 33.89992 132.94635 33021 ft 598 kts 74°
2026-05-05 07:47 33.92602 133.04114 33069 ft 601 kts 73°
2026-05-05 07:47 33.95250 133.13664 33045 ft 600 kts 73°
2026-05-05 07:48 33.97433 133.21588 33054 ft 600 kts 73°
2026-05-05 07:48 34.00432 133.32684 33069 ft 600 kts 73°
2026-05-05 07:49 34.03031 133.42215 33047 ft 600 kts 73°
2026-05-05 07:49 34.05747 133.51723 33039 ft 600 kts 71°
2026-05-05 07:50 34.08654 133.61083 33068 ft 601 kts 70°
2026-05-05 07:50 34.11527 133.70512 33017 ft 600 kts 71°
2026-05-05 07:51 34.14374 133.79912 32997 ft 599 kts 71°
2026-05-05 07:51 34.17253 133.89331 33065 ft 602 kts 71°
2026-05-05 07:52 34.20147 133.98814 33030 ft 599 kts 72°
2026-05-05 07:52 34.22537 134.08391 33053 ft 598 kts 79°
2026-05-05 07:53 34.24414 134.18121 33079 ft 599 kts 79°
2026-05-05 07:53 34.26305 134.27925 33054 ft 597 kts 79°
2026-05-05 07:54 34.28242 134.37646 33049 ft 598 kts 79°
2026-05-05 07:54 34.30165 134.47411 33065 ft 601 kts 79°
2026-05-05 07:55 34.32098 134.57179 33043 ft 598 kts 78°
2026-05-05 07:55 34.33736 134.65353 33063 ft 600 kts 78°
2026-05-05 07:56 34.35685 134.75107 33009 ft 598 kts 79°
2026-05-05 07:56 34.37956 134.86427 33071 ft 601 kts 79°
2026-05-05 07:57 34.39653 134.96265 33056 ft 597 kts 83°
2026-05-05 07:57 34.40860 135.04512 33078 ft 599 kts 83°
2026-05-05 07:58 34.42401 135.14397 33063 ft 598 kts 82°
2026-05-05 07:58 34.43989 135.24237 33062 ft 599 kts 82°
2026-05-05 07:59 34.45822 135.35808 33066 ft 601 kts 82°
2026-05-05 07:59 34.47425 135.45679 33044 ft 599 kts 81°
2026-05-05 08:00 34.48760 135.53914 33082 ft 601 kts 81°
2026-05-05 08:00 34.50638 135.65486 33062 ft 602 kts 82°
2026-05-05 08:01 34.51948 135.73758 33016 ft 599 kts 83°
2026-05-05 08:01 34.53431 135.83725 33075 ft 603 kts 83°
2026-05-05 08:02 34.54964 135.93681 33072 ft 602 kts 82°
2026-05-05 08:02 34.56513 136.03601 33082 ft 603 kts 82°
2026-05-05 08:03 34.58082 136.13582 33071 ft 603 kts 79°
2026-05-05 08:03 34.60789 136.23183 33086 ft 606 kts 63°
2026-05-05 08:04 34.64781 136.32199 33117 ft 609 kts 59°
2026-05-05 08:04 34.68810 136.41150 33075 ft 604 kts 60°
2026-05-05 08:05 34.72718 136.50159 33108 ft 607 kts 61°
2026-05-05 08:05 34.77266 136.60719 33068 ft 606 kts 61°
2026-05-05 08:06 34.81210 136.69830 33082 ft 609 kts 60°
2026-05-05 08:06 34.85362 136.78702 33011 ft 602 kts 50°
2026-05-05 08:07 34.90087 136.84766 33148 ft 593 kts 32°
2026-05-05 08:07 34.96894 136.90381 33126 ft 585 kts 25°
2026-05-05 08:08 35.04807 136.96625 33088 ft 581 kts 26°
2026-05-05 08:08 35.10363 137.01305 33134 ft 586 kts 28°
2026-05-05 08:09 35.16992 137.07027 33087 ft 584 kts 28°
2026-05-05 08:09 35.23614 137.12726 33105 ft 578 kts 27°
2026-05-05 08:10 35.31257 137.19251 33122 ft 577 kts 27°
2026-05-05 08:10 35.36680 137.24106 33083 ft 582 kts 35°
2026-05-05 08:11 35.39542 137.27624 33101 ft 588 kts 46°
2026-05-05 08:11 35.41922 137.31752 33169 ft 596 kts 58°
2026-05-05 08:11 35.45823 137.42616 33174 ft 599 kts 68°
2026-05-05 08:12 35.48445 137.50423 33071 ft 596 kts 64°
2026-05-05 08:12 35.51919 137.59662 33123 ft 597 kts 63°
2026-05-05 08:13 35.55384 137.68860 33085 ft 595 kts 64°
2026-05-05 08:13 35.58791 137.78102 33080 ft 594 kts 64°
2026-05-05 08:14 35.62173 137.87363 33141 ft 598 kts 65°
2026-05-05 08:14 35.65497 137.96689 33113 ft 597 kts 64°
2026-05-05 08:15 35.68928 138.05937 33123 ft 598 kts 62°
2026-05-05 08:15 35.72534 138.15122 33136 ft 596 kts 63°
2026-05-05 08:16 35.76091 138.24345 33141 ft 598 kts 63°
2026-05-05 08:16 35.79640 138.33568 33119 ft 600 kts 63°
2026-05-05 08:17 35.83168 138.42821 33130 ft 598 kts 63°
2026-05-05 08:17 35.86703 138.52084 33099 ft 598 kts 63°
2026-05-05 08:18 35.90241 138.61299 33126 ft 601 kts 62°
2026-05-05 08:18 35.94350 138.72192 33095 ft 601 kts 63°
2026-05-05 08:19 35.97266 138.79976 33079 ft 603 kts 63°
2026-05-05 08:19 36.00813 138.89348 33131 ft 605 kts 63°
2026-05-05 08:20 36.04319 138.98727 33117 ft 603 kts 63°
2026-05-05 08:20 36.07789 139.08093 33099 ft 602 kts 64°
2026-05-05 08:21 36.11314 139.17537 33117 ft 604 kts 63°
2026-05-05 08:21 36.14820 139.26833 33077 ft 600 kts 62°
2026-05-05 08:22 36.19803 139.37099 33128 ft 593 kts 50°
2026-05-05 08:22 36.23859 139.43860 33130 ft 591 kts 49°
2026-05-05 08:23 36.29514 139.53410 33102 ft 587 kts 49°
2026-05-05 08:23 36.33488 139.60220 33137 ft 588 kts 49°
2026-05-05 08:24 36.38265 139.68411 33077 ft 586 kts 50°
2026-05-05 08:24 36.43062 139.76552 33112 ft 581 kts 49°
2026-05-05 08:25 36.47784 139.84622 33093 ft 583 kts 50°
2026-05-05 08:25 36.52394 139.92949 33132 ft 586 kts 53°
2026-05-05 08:26 36.56762 140.01417 33094 ft 581 kts 54°
2026-05-05 08:26 36.61147 140.09781 33148 ft 580 kts 52°
2026-05-05 08:27 36.65608 140.18182 33119 ft 582 kts 52°
2026-05-05 08:27 36.69999 140.26566 33821 ft 582 kts 53°
2026-05-05 08:28 36.72212 140.30801 34339 ft 586 kts 53°
2026-05-05 08:28 36.74322 140.35176 34920 ft 589 kts 58°
2026-05-05 08:28 36.76185 140.39703 35049 ft 591 kts 63°
2026-05-05 08:28 36.77840 140.44336 35071 ft 585 kts 64°
2026-05-05 08:29 36.81526 140.55150 35171 ft 582 kts 64°
2026-05-05 08:30 36.85888 140.67496 35117 ft 585 kts 65°
2026-05-05 08:30 36.89146 140.76721 35089 ft 584 kts 65°
2026-05-05 08:31 36.92419 140.86009 35130 ft 585 kts 64°
2026-05-05 08:31 36.95692 140.95221 35132 ft 584 kts 64°
2026-05-05 08:32 36.98928 141.04530 35135 ft 585 kts 65°
2026-05-05 08:32 37.02068 141.13823 35160 ft 584 kts 65°
2026-05-05 08:33 37.05239 141.23161 35124 ft 582 kts 65°
2026-05-05 08:33 37.08434 141.32498 35158 ft 584 kts 65°
2026-05-05 08:34 37.11616 141.41789 35139 ft 584 kts 64°
2026-05-05 08:34 37.14826 141.51125 35124 ft 584 kts 65°
2026-05-05 08:35 37.18017 141.60399 35135 ft 585 kts 64°
2026-05-05 08:35 37.21248 141.69750 35131 ft 584 kts 65°
2026-05-05 08:36 37.24466 141.79056 35111 ft 585 kts 65°
2026-05-05 08:36 37.27710 141.88411 35154 ft 585 kts 64°
2026-05-05 08:37 37.30896 141.97691 35129 ft 584 kts 66°
2026-05-05 08:37 37.34007 142.07165 35167 ft 586 kts 65°
2026-05-05 08:38 37.37098 142.16556 35139 ft 583 kts 66°
2026-05-05 08:38 37.40212 142.25919 35138 ft 583 kts 65°
2026-05-05 08:39 37.43355 142.35361 35152 ft 585 kts 65°
2026-05-05 08:39 37.46486 142.44733 35137 ft 586 kts 65°
2026-05-05 08:40 37.49639 142.54140 35154 ft 585 kts 65°
2026-05-05 08:40 37.52809 142.63577 35151 ft 584 kts 65°
2026-05-05 08:41 37.55954 142.72946 35108 ft 584 kts 65°
2026-05-05 08:41 37.59013 142.82463 35152 ft 588 kts 67°
2026-05-05 08:42 37.62009 142.91995 35123 ft 586 kts 66°
2026-05-05 08:42 37.65055 143.01497 35149 ft 586 kts 66°
2026-05-05 08:43 37.68103 143.11003 35139 ft 586 kts 66°
2026-05-05 08:43 37.71115 143.20523 35155 ft 587 kts 66°
2026-05-05 08:44 37.74092 143.30052 35135 ft 584 kts 66°
2026-05-05 08:44 37.77088 143.39540 35139 ft 586 kts 66°
2026-05-05 08:45 37.80135 143.49100 35146 ft 586 kts 64°
2026-05-05 08:45 37.82029 143.53615 35154 ft 580 kts 52°
2026-05-05 08:45 37.84433 143.57620 35204 ft 574 kts 41°
2026-05-05 08:46 37.90348 143.64267 35205 ft 563 kts 31°
2026-05-05 08:46 37.96394 143.70439 35100 ft 561 kts 33°
2026-05-05 08:47 38.02317 143.76883 35127 ft 562 kts 34°
2026-05-05 08:47 38.08171 143.83420 35130 ft 562 kts 35°
2026-05-05 08:48 38.14019 143.89963 35136 ft 559 kts 34°
2026-05-05 08:48 38.19851 143.96462 35123 ft 561 kts 34°
2026-05-05 08:49 38.25715 144.02985 35172 ft 560 kts 34°
2026-05-05 08:49 38.31551 144.09471 35118 ft 556 kts 34°
2026-05-05 08:50 38.37371 144.15922 35162 ft 559 kts 34°
2026-05-05 08:50 38.43226 144.22433 35150 ft 558 kts 34°
2026-05-05 08:51 38.49078 144.28917 35157 ft 559 kts 34°
2026-05-05 08:51 38.54879 144.35471 35181 ft 560 kts 34°
2026-05-05 08:52 38.60698 144.42078 35143 ft 558 kts 34°
2026-05-05 08:52 38.63582 144.45326 35357 ft 559 kts 34°
2026-05-05 08:52 38.66485 144.48595 35230 ft 558 kts 34°
2026-05-05 08:53 38.72277 144.55112 35125 ft 550 kts 34°
2026-05-05 08:53 38.78026 144.61621 35153 ft 553 kts 35°
2026-05-05 08:54 38.83726 144.68230 35092 ft 553 kts 36°
2026-05-05 08:54 38.89412 144.74834 35096 ft 554 kts 36°
2026-05-05 08:55 38.95104 144.81421 35116 ft 553 kts 36°
2026-05-05 08:55 39.00819 144.88019 35086 ft 552 kts 36°
2026-05-05 08:56 39.06521 144.94603 35124 ft 552 kts 36°
2026-05-05 08:56 39.12201 145.01172 35100 ft 549 kts 35°
2026-05-05 08:57 39.17857 145.07681 35095 ft 548 kts 35°
2026-05-05 08:57 39.23583 145.14282 35132 ft 551 kts 35°
2026-05-05 08:58 39.29259 145.20828 35097 ft 549 kts 35°
2026-05-05 08:58 39.34911 145.27357 35112 ft 548 kts 36°
2026-05-05 08:59 39.40490 145.34001 35125 ft 545 kts 36°
2026-05-05 08:59 39.46056 145.40640 35100 ft 545 kts 36°
2026-05-05 09:00 39.51625 145.47257 35115 ft 546 kts 36°
2026-05-05 09:00 39.57167 145.53833 35093 ft 540 kts 35°
2026-05-05 09:01 39.62727 145.60413 35116 ft 541 kts 36°
2026-05-05 09:01 39.68282 145.66991 35098 ft 542 kts 36°
2026-05-05 09:02 39.73845 145.73576 35074 ft 541 kts 36°
2026-05-05 09:02 39.79379 145.80113 35101 ft 543 kts 36°
2026-05-05 09:03 39.84945 145.86696 35086 ft 539 kts 36°
2026-05-05 09:03 39.90474 145.93219 35096 ft 539 kts 36°
2026-05-05 09:04 39.96031 145.99799 35111 ft 541 kts 37°
2026-05-05 09:04 40.01473 146.06447 35086 ft 538 kts 37°
2026-05-05 09:05 40.06948 146.13144 35107 ft 541 kts 37°
2026-05-05 09:05 40.12412 146.19801 35083 ft 541 kts 37°
2026-05-05 09:06 40.17896 146.26480 35108 ft 538 kts 37°
2026-05-05 09:06 40.23328 146.33081 35091 ft 537 kts 37°
2026-05-05 09:07 40.28836 146.39766 35120 ft 538 kts 37°
2026-05-05 09:07 40.34306 146.46414 35089 ft 537 kts 37°
2026-05-05 09:08 40.39709 146.52959 35072 ft 531 kts 37°
2026-05-05 09:08 40.45158 146.59561 35096 ft 534 kts 37°
2026-05-05 09:09 40.50598 146.66159 35080 ft 534 kts 37°
2026-05-05 09:09 40.56044 146.72751 35047 ft 534 kts 38°
2026-05-05 09:10 40.61445 146.79489 35080 ft 534 kts 38°
2026-05-05 09:10 40.66778 146.86194 35062 ft 533 kts 38°
2026-05-05 09:11 40.72127 146.92891 35076 ft 533 kts 38°
2026-05-05 09:11 40.77506 146.99611 35058 ft 531 kts 38°
2026-05-05 09:12 40.82834 147.06265 35074 ft 529 kts 38°
2026-05-05 09:12 40.88180 147.12927 35069 ft 529 kts 38°
2026-05-05 09:13 40.93511 147.19574 35093 ft 528 kts 38°
2026-05-05 09:13 40.98827 147.26190 35050 ft 526 kts 38°
2026-05-05 09:14 41.04156 147.32816 35104 ft 528 kts 38°
2026-05-05 09:14 41.09507 147.39473 35069 ft 528 kts 38°
2026-05-05 09:15 41.14855 147.46112 35102 ft 529 kts 38°
2026-05-05 09:15 41.20175 147.52859 35078 ft 527 kts 39°
2026-05-05 09:16 41.25408 147.59619 35102 ft 529 kts 39°
2026-05-05 09:16 41.30704 147.66434 35080 ft 528 kts 39°
2026-05-05 09:17 41.35970 147.73192 35057 ft 528 kts 39°
2026-05-05 09:17 41.41254 147.79962 35083 ft 532 kts 39°
2026-05-05 09:18 41.46534 147.86726 35074 ft 528 kts 39°
2026-05-05 09:18 41.51840 147.93515 35083 ft 528 kts 39°
2026-05-05 09:19 41.57133 148.00278 35106 ft 527 kts 39°
2026-05-05 09:19 41.62368 148.06973 35046 ft 524 kts 39°
2026-05-05 09:20 41.67664 148.13719 35088 ft 529 kts 39°
2026-05-05 09:20 41.72993 148.20531 35072 ft 531 kts 38°
2026-05-05 09:21 41.78253 148.27359 35032 ft 527 kts 40°
2026-05-05 09:21 41.83458 148.34354 35058 ft 533 kts 40°
2026-05-05 09:22 41.88675 148.41386 35063 ft 532 kts 40°
2026-05-05 09:22 41.93871 148.48369 35062 ft 531 kts 40°
2026-05-05 09:23 41.99081 148.55357 35063 ft 531 kts 40°
2026-05-05 09:23 42.04291 148.62334 35058 ft 535 kts 40°
2026-05-05 09:24 42.09578 148.69423 35055 ft 533 kts 40°
2026-05-05 09:24 42.14796 148.76398 35027 ft 531 kts 40°
2026-05-05 09:25 42.20036 148.83398 35063 ft 536 kts 41°
2026-05-05 09:25 42.25308 148.90451 35021 ft 533 kts 40°
2026-05-05 09:26 42.30608 148.97516 35057 ft 535 kts 40°
2026-05-05 09:26 42.35863 149.04547 35038 ft 536 kts 41°
2026-05-05 09:27 42.41064 149.11740 35045 ft 537 kts 41°
2026-05-05 09:27 42.46257 149.18953 35040 ft 537 kts 41°
2026-05-05 09:28 42.51475 149.26173 35050 ft 537 kts 41°
2026-05-05 09:28 42.56687 149.33366 35038 ft 537 kts 41°
2026-05-05 09:29 42.61910 149.40570 35026 ft 538 kts 41°
2026-05-05 09:29 42.67148 149.47788 35044 ft 538 kts 40°
2026-05-05 09:30 42.72384 149.54999 35040 ft 537 kts 40°
2026-05-05 09:30 42.77631 149.62207 35047 ft 538 kts 40°
2026-05-05 09:31 42.82869 149.69405 35024 ft 537 kts 41°
2026-05-05 09:31 42.88105 149.76592 35033 ft 536 kts 41°
2026-05-05 09:32 42.93377 149.83821 35040 ft 539 kts 41°
2026-05-05 09:32 42.98539 149.91135 35052 ft 537 kts 43°
2026-05-05 09:33 43.03672 149.98480 35042 ft 536 kts 42°
2026-05-05 09:33 43.08851 150.05856 35047 ft 540 kts 42°
2026-05-05 09:34 43.14036 150.13229 35016 ft 541 kts 42°
2026-05-05 09:34 43.19264 150.20656 35004 ft 539 kts 41°
2026-05-05 09:35 43.24458 150.28018 35020 ft 543 kts 41°
2026-05-05 09:35 43.32305 150.39134 34998 ft 540 kts 41°
2026-05-05 09:36 43.37534 150.46523 35008 ft 542 kts 41°
2026-05-05 09:36 43.42759 150.53915 34992 ft 544 kts 41°
2026-05-05 09:37 43.48016 150.61334 34990 ft 542 kts 41°
2026-05-05 09:37 43.53255 150.68790 34970 ft 543 kts 43°
2026-05-05 09:38 43.58400 150.76358 34976 ft 544 kts 43°
2026-05-05 09:38 43.63594 150.84006 34967 ft 547 kts 43°
2026-05-05 09:39 43.68778 150.91608 34980 ft 546 kts 43°
2026-05-05 09:39 43.73967 150.99202 34954 ft 546 kts 43°
2026-05-05 09:40 43.79199 151.06848 34975 ft 547 kts 43°
2026-05-05 09:40 43.84401 151.14444 34950 ft 548 kts 43°
2026-05-05 09:41 43.89631 151.22069 34947 ft 547 kts 42°
2026-05-05 09:41 43.94875 151.29703 34952 ft 547 kts 43°
2026-05-05 09:42 44.00097 151.37308 34955 ft 547 kts 42°
2026-05-05 09:42 44.05336 151.44920 34932 ft 547 kts 42°
2026-05-05 09:43 44.10553 151.52568 34939 ft 549 kts 43°
2026-05-05 09:43 44.15691 151.60368 34914 ft 547 kts 43°
2026-05-05 09:44 44.20823 151.68155 34895 ft 548 kts 44°
2026-05-05 09:44 44.25979 151.75946 34886 ft 549 kts 44°
2026-05-05 09:45 44.31165 151.83766 34877 ft 549 kts 44°
2026-05-05 09:45 44.36345 151.91566 34895 ft 551 kts 44°
2026-05-05 09:46 44.41563 151.99422 34887 ft 552 kts 44°
2026-05-05 09:46 44.46775 152.07254 34893 ft 551 kts 43°
2026-05-05 09:47 44.51996 152.15085 34878 ft 552 kts 43°
2026-05-05 09:47 44.57192 152.22884 34867 ft 551 kts 43°
2026-05-05 09:48 44.62434 152.30730 34873 ft 551 kts 43°
2026-05-05 09:48 44.67636 152.38617 34865 ft 554 kts 44°
2026-05-05 09:49 44.72738 152.46606 34843 ft 554 kts 44°
2026-05-05 09:49 44.77905 152.54694 34840 ft 556 kts 44°
2026-05-05 09:50 44.83060 152.62730 34829 ft 557 kts 44°
2026-05-05 09:50 44.88247 152.70801 34794 ft 557 kts 45°
2026-05-05 09:51 44.93454 152.78886 34804 ft 558 kts 45°
2026-05-05 09:51 44.98660 152.86966 34796 ft 558 kts 44°
2026-05-05 09:52 45.03857 152.95020 34791 ft 559 kts 44°
2026-05-05 09:52 45.09092 153.03117 34793 ft 560 kts 44°
2026-05-05 09:53 45.14343 153.11234 34769 ft 559 kts 44°
2026-05-05 09:53 45.19593 153.19344 34779 ft 559 kts 44°
2026-05-05 09:54 45.24777 153.27495 34768 ft 560 kts 46°
2026-05-05 09:54 45.29911 153.35731 34770 ft 560 kts 46°
2026-05-05 09:55 45.35088 153.43986 34769 ft 559 kts 45°
2026-05-05 09:55 45.40267 153.52196 34755 ft 560 kts 45°
2026-05-05 09:56 45.45450 153.60442 34755 ft 561 kts 45°
2026-05-05 09:56 45.50642 153.68658 34737 ft 561 kts 45°
2026-05-05 09:57 45.55957 153.76773 34741 ft 560 kts 45°
2026-05-05 09:57 45.61076 153.85060 34755 ft 562 kts 47°
2026-05-05 09:58 45.66144 153.93509 34733 ft 561 kts 47°
2026-05-05 09:58 45.71209 154.01958 34747 ft 562 kts 47°
2026-05-05 09:59 45.76301 154.10420 34729 ft 562 kts 47°
2026-05-05 09:59 45.81387 154.18852 34734 ft 562 kts 47°
2026-05-05 10:00 45.86483 154.27295 34732 ft 562 kts 47°
2026-05-05 10:00 45.91600 154.35761 34739 ft 563 kts 46°
2026-05-05 10:01 45.96735 154.44235 34732 ft 562 kts 46°
2026-05-05 10:01 46.01828 154.52629 34716 ft 561 kts 46°
2026-05-05 10:02 46.06955 154.61073 34733 ft 563 kts 46°
2026-05-05 10:02 46.12081 154.69528 34685 ft 562 kts 47°
2026-05-05 10:03 46.17120 154.78169 34691 ft 564 kts 49°
2026-05-05 10:03 46.22159 154.86888 34691 ft 566 kts 49°
2026-05-05 10:04 46.27168 154.95509 34694 ft 565 kts 48°
2026-05-05 10:04 46.32246 155.04219 34704 ft 565 kts 48°
2026-05-05 10:05 46.37289 155.12857 34682 ft 565 kts 48°
2026-05-05 10:05 46.42356 155.21527 34697 ft 566 kts 48°
2026-05-05 10:06 46.47421 155.30176 34674 ft 565 kts 47°
2026-05-05 10:06 46.52478 155.38797 34667 ft 565 kts 47°
2026-05-05 10:07 46.57595 155.47510 34664 ft 566 kts 47°
2026-05-05 10:07 46.62693 155.56177 34643 ft 566 kts 47°
2026-05-05 10:08 46.67740 155.64882 34630 ft 567 kts 49°
2026-05-05 10:08 46.72689 155.73732 34611 ft 568 kts 50°
2026-05-05 10:09 46.77676 155.82649 34612 ft 568 kts 50°
2026-05-05 10:09 46.82655 155.91499 34622 ft 567 kts 50°
2026-05-05 10:10 46.87660 156.00374 34607 ft 567 kts 49°
2026-05-05 10:10 46.92657 156.09225 34614 ft 568 kts 49°
2026-05-05 10:11 46.97691 156.18126 34611 ft 568 kts 49°
2026-05-05 10:11 47.02709 156.26988 34595 ft 568 kts 49°
2026-05-05 10:12 47.07740 156.35849 34606 ft 569 kts 49°
2026-05-05 10:12 47.12817 156.44785 34592 ft 568 kts 49°
2026-05-05 10:13 47.17856 156.53644 34587 ft 569 kts 49°
2026-05-05 10:13 47.22812 156.62679 34593 ft 569 kts 50°
2026-05-05 10:14 47.27712 156.71767 34561 ft 569 kts 51°
2026-05-05 10:14 47.32624 156.80838 34552 ft 570 kts 50°
2026-05-05 10:15 47.37542 156.89879 34556 ft 570 kts 50°
2026-05-05 10:15 47.42509 156.98987 34541 ft 571 kts 50°
2026-05-05 10:16 47.47474 157.08086 34550 ft 572 kts 50°
2026-05-05 10:16 47.52452 157.17194 34535 ft 570 kts 50°
2026-05-05 10:17 47.57422 157.26266 34533 ft 570 kts 50°
2026-05-05 10:17 47.62407 157.35352 34539 ft 572 kts 50°
2026-05-05 10:18 47.67408 157.44457 34533 ft 571 kts 50°
2026-05-05 10:18 47.72377 157.53597 34509 ft 571 kts 51°
2026-05-05 10:19 47.77229 157.62897 34533 ft 573 kts 51°
2026-05-05 10:19 47.82104 157.72253 34494 ft 572 kts 52°
2026-05-05 10:20 47.86977 157.81555 34502 ft 574 kts 52°
2026-05-05 10:20 47.91867 157.90861 34490 ft 572 kts 52°
2026-05-05 10:21 47.96755 158.00145 34478 ft 572 kts 52°
2026-05-05 10:21 48.01647 158.09433 34494 ft 573 kts 52°
2026-05-05 10:22 48.06581 158.18776 34479 ft 573 kts 52°
2026-05-05 10:22 48.11506 158.28082 34494 ft 573 kts 51°
2026-05-05 10:23 48.16433 158.37378 34465 ft 573 kts 51°
2026-05-05 10:23 48.21398 158.46735 34482 ft 574 kts 51°
2026-05-05 10:24 48.26230 158.56184 34476 ft 575 kts 53°
2026-05-05 10:24 48.31013 158.65730 34482 ft 575 kts 54°
2026-05-05 10:25 48.35811 158.75253 34456 ft 575 kts 53°
2026-05-05 10:25 48.40657 158.84831 34466 ft 576 kts 53°
2026-05-05 10:26 48.45504 158.94388 34462 ft 577 kts 53°
2026-05-05 10:26 48.50354 159.03938 34436 ft 576 kts 53°
2026-05-05 10:27 48.55211 159.13492 34452 ft 577 kts 53°
2026-05-05 10:27 48.60080 159.23035 34443 ft 577 kts 53°
2026-05-05 10:28 48.64957 159.32581 34444 ft 578 kts 53°
2026-05-05 10:28 48.69861 159.42172 34452 ft 577 kts 52°
2026-05-05 10:29 48.74707 159.51755 34429 ft 577 kts 54°
2026-05-05 10:29 48.79473 159.61499 34455 ft 578 kts 54°
2026-05-05 10:30 48.84275 159.71263 34427 ft 577 kts 54°
2026-05-05 10:30 48.89088 159.80974 34417 ft 577 kts 54°
2026-05-05 10:31 48.93891 159.90678 34428 ft 578 kts 54°
2026-05-05 10:31 48.98751 160.00295 34413 ft 577 kts 52°
2026-05-05 10:32 49.03625 160.10010 34436 ft 579 kts 55°
2026-05-05 10:32 49.08244 160.20006 34418 ft 578 kts 57°
2026-05-05 10:33 49.12786 160.30013 34395 ft 578 kts 57°
2026-05-05 10:33 49.17373 160.40083 34389 ft 579 kts 56°
2026-05-05 10:34 49.21964 160.50113 34395 ft 578 kts 56°
2026-05-05 10:34 49.26575 160.60165 34416 ft 579 kts 56°
2026-05-05 10:35 49.31176 160.70172 34407 ft 578 kts 57°
2026-05-05 10:35 49.35783 160.80186 34384 ft 578 kts 57°
2026-05-05 10:36 49.40407 160.90207 34410 ft 578 kts 56°
2026-05-05 10:36 49.45073 161.00285 34393 ft 577 kts 56°
2026-05-05 10:37 49.49682 161.10236 34410 ft 578 kts 56°
2026-05-05 10:37 49.54250 161.20358 34401 ft 578 kts 58°
2026-05-05 10:38 49.58687 161.30670 34411 ft 578 kts 58°
2026-05-05 10:38 49.63096 161.40891 34398 ft 578 kts 58°
2026-05-05 10:39 49.67569 161.51181 34410 ft 577 kts 58°
2026-05-05 10:39 49.72042 161.61429 34390 ft 577 kts 57°
2026-05-05 10:40 49.76517 161.71660 34405 ft 577 kts 58°
2026-05-05 10:40 49.80987 161.81873 34408 ft 577 kts 58°
2026-05-05 10:41 49.85480 161.92107 34401 ft 577 kts 58°
2026-05-05 10:41 49.89988 162.02345 34383 ft 576 kts 58°
2026-05-05 10:42 49.96741 162.17656 34417 ft 578 kts 57°
2026-05-05 10:43 50.01192 162.28003 34396 ft 576 kts 59°
2026-05-05 10:43 50.05495 162.38422 34426 ft 577 kts 59°
2026-05-05 10:44 50.09850 162.48923 34403 ft 577 kts 59°
2026-05-05 10:44 50.14197 162.59337 34403 ft 578 kts 59°
2026-05-05 10:45 50.18584 162.69812 34405 ft 576 kts 60°
2026-05-05 10:45 50.22945 162.80205 34409 ft 577 kts 59°
2026-05-05 10:46 50.27353 162.90688 34434 ft 579 kts 59°
2026-05-05 10:46 50.31745 163.01108 34417 ft 578 kts 59°
2026-05-05 10:47 50.36177 163.11586 34432 ft 578 kts 59°
2026-05-05 10:47 50.40590 163.21999 34457 ft 580 kts 59°
2026-05-05 10:48 50.45036 163.32552 34427 ft 577 kts 60°
2026-05-05 10:48 50.49254 163.43132 34446 ft 576 kts 61°
2026-05-05 10:49 50.53495 163.53844 34449 ft 579 kts 60°
2026-05-05 10:49 50.57753 163.64505 34451 ft 580 kts 60°
2026-05-05 10:50 50.62034 163.75172 34440 ft 577 kts 61°
2026-05-05 10:50 50.66284 163.85738 34448 ft 577 kts 61°
2026-05-05 10:51 50.70586 163.96425 34322 ft 581 kts 61°
2026-05-05 10:51 50.72766 164.01829 34610 ft 585 kts 61°
2026-05-05 10:51 50.74943 164.07220 34527 ft 585 kts 60°
2026-05-05 10:52 50.79255 164.17847 34577 ft 577 kts 60°
2026-05-05 10:52 50.83607 164.28580 34593 ft 582 kts 60°
2026-05-05 10:53 50.87970 164.39275 34563 ft 580 kts 60°
2026-05-05 10:53 50.92229 164.50084 34577 ft 582 kts 62°
2026-05-05 10:54 50.96394 164.60963 34575 ft 580 kts 62°
2026-05-05 10:54 51.00547 164.71796 34532 ft 578 kts 62°
2026-05-05 10:55 51.04731 164.82672 34546 ft 580 kts 62°
2026-05-05 10:55 51.08935 164.93545 34544 ft 579 kts 62°
2026-05-05 10:56 51.13154 165.04436 34524 ft 579 kts 62°
2026-05-05 10:56 51.17351 165.15266 34531 ft 581 kts 62°
2026-05-05 10:57 51.21607 165.26205 34540 ft 582 kts 62°
2026-05-05 10:57 51.25862 165.37105 34541 ft 581 kts 61°
2026-05-05 10:58 51.30143 165.48051 34557 ft 583 kts 61°
2026-05-05 10:58 51.34419 165.58937 34570 ft 580 kts 61°
2026-05-05 10:59 51.38573 165.69942 34579 ft 582 kts 64°
2026-05-05 10:59 51.42632 165.81038 34570 ft 581 kts 63°
2026-05-05 11:00 51.46696 165.92122 34597 ft 581 kts 63°
2026-05-05 11:00 51.50787 166.03210 34590 ft 581 kts 63°
2026-05-05 11:01 51.54922 166.14383 34616 ft 582 kts 63°
2026-05-05 11:01 51.59026 166.25458 34600 ft 582 kts 62°
2026-05-05 11:02 51.63172 166.36604 34615 ft 581 kts 62°
2026-05-05 11:02 51.67287 166.47641 34621 ft 580 kts 62°
2026-05-05 11:03 51.71439 166.58745 34637 ft 582 kts 61°
2026-05-05 11:03 51.75614 166.69869 34622 ft 581 kts 62°
2026-05-05 11:04 51.79789 166.80998 34624 ft 581 kts 62°
2026-05-05 11:04 51.83773 166.92236 34640 ft 577 kts 64°
2026-05-05 11:05 51.87685 167.03493 34667 ft 580 kts 64°
2026-05-05 11:05 51.91651 167.14795 34670 ft 580 kts 63°
2026-05-05 11:06 51.95634 167.26090 34682 ft 580 kts 63°
2026-05-05 11:06 51.99652 167.37436 34709 ft 581 kts 62°
2026-05-05 11:07 52.03662 167.48732 34726 ft 581 kts 62°
2026-05-05 11:07 52.07677 167.60023 34714 ft 580 kts 62°
2026-05-05 11:08 52.11710 167.71312 34707 ft 580 kts 63°
2026-05-05 11:08 52.15765 167.82645 34703 ft 581 kts 62°
2026-05-05 11:09 52.19836 167.93959 34716 ft 581 kts 62°
2026-05-05 11:09 52.23774 168.05312 34735 ft 580 kts 64°
2026-05-05 11:10 52.27587 168.16815 34743 ft 579 kts 64°
2026-05-05 11:10 52.31423 168.28349 34769 ft 582 kts 63°
2026-05-05 11:11 52.35310 168.39914 34752 ft 580 kts 63°
2026-05-05 11:11 52.39186 168.51411 34782 ft 580 kts 62°
2026-05-05 11:12 52.43065 168.62868 34790 ft 582 kts 63°
2026-05-05 11:12 52.46988 168.74434 34778 ft 581 kts 63°
2026-05-05 11:13 52.50898 168.85916 34796 ft 580 kts 63°
2026-05-05 11:13 52.54848 168.97513 34824 ft 582 kts 62°
2026-05-05 11:14 52.58784 169.08975 34812 ft 578 kts 62°
2026-05-05 11:14 52.62676 169.20462 34831 ft 579 kts 63°
2026-05-05 11:14 52.64556 169.26306 35001 ft 579 kts 64°
2026-05-05 11:15 52.66395 169.32092 35947 ft 573 kts 64°
2026-05-05 11:15 52.68236 169.37904 36644 ft 575 kts 63°
2026-05-05 11:15 52.70112 169.43774 36890 ft 579 kts 63°
2026-05-05 11:15 52.71985 169.49580 36788 ft 572 kts 63°
2026-05-05 11:16 52.73820 169.55252 36853 ft 562 kts 63°
2026-05-05 11:16 52.77498 169.66611 36928 ft 565 kts 63°
2026-05-05 11:17 52.81211 169.78047 36862 ft 569 kts 62°
2026-05-05 11:17 52.84943 169.89462 36887 ft 567 kts 63°
2026-05-05 11:18 52.88689 170.00951 36896 ft 569 kts 63°
2026-05-05 11:18 52.92565 170.12291 36875 ft 567 kts 55°
2026-05-05 11:19 52.97361 170.22542 36953 ft 568 kts 47°
2026-05-05 11:19 53.02528 170.32417 36892 ft 568 kts 47°
2026-05-05 11:20 53.07592 170.42387 36920 ft 568 kts 47°
2026-05-05 11:20 53.12653 170.52437 36919 ft 566 kts 47°
2026-05-05 11:21 53.17688 170.62440 36907 ft 566 kts 47°
2026-05-05 11:21 53.22747 170.72446 36928 ft 565 kts 48°
2026-05-05 11:22 53.27768 170.82379 36923 ft 563 kts 47°
2026-05-05 11:22 53.32806 170.92302 36953 ft 564 kts 47°
2026-05-05 11:23 53.37874 171.02271 36941 ft 564 kts 47°
2026-05-05 11:23 53.42911 171.12166 36959 ft 561 kts 47°
2026-05-05 11:24 53.47993 171.22105 36972 ft 561 kts 46°
2026-05-05 11:24 53.53016 171.31973 36965 ft 559 kts 47°
2026-05-05 11:25 53.57895 171.42068 36977 ft 559 kts 48°
2026-05-05 11:25 53.62746 171.52202 37000 ft 559 kts 47°
2026-05-05 11:26 53.67628 171.62314 36990 ft 556 kts 47°
2026-05-05 11:26 53.72487 171.72339 36991 ft 555 kts 48°
2026-05-05 11:27 53.77381 171.82431 36999 ft 556 kts 48°
2026-05-05 11:27 53.82262 171.92484 37020 ft 555 kts 47°
2026-05-05 11:28 53.87143 172.02501 37013 ft 551 kts 47°
2026-05-05 11:28 53.91995 172.12454 37031 ft 552 kts 47°
2026-05-05 11:29 53.96884 172.22435 37047 ft 551 kts 47°
2026-05-05 11:29 54.01763 172.32400 37029 ft 549 kts 46°
2026-05-05 11:30 54.06606 172.42378 37050 ft 550 kts 47°
2026-05-05 11:30 54.11337 172.52513 37063 ft 550 kts 47°
2026-05-05 11:31 54.16094 172.62614 37033 ft 545 kts 47°
2026-05-05 11:31 54.20821 172.72577 37050 ft 546 kts 48°
2026-05-05 11:32 54.25497 172.82822 37066 ft 549 kts 53°
2026-05-05 11:32 54.29214 172.94214 37095 ft 551 kts 63°
2026-05-05 11:33 54.32454 173.06020 37095 ft 550 kts 63°
2026-05-05 11:33 54.35707 173.17827 37067 ft 549 kts 62°
2026-05-05 11:34 54.39008 173.29587 37113 ft 550 kts 62°
2026-05-05 11:34 54.42305 173.41299 37069 ft 546 kts 62°
2026-05-05 11:35 54.45602 173.52991 37104 ft 547 kts 61°
2026-05-05 11:35 54.48907 173.64670 37111 ft 546 kts 60°
2026-05-05 11:36 54.52206 173.76263 37073 ft 544 kts 62°
2026-05-05 11:36 54.55539 173.87973 37112 ft 544 kts 61°
2026-05-05 11:37 54.58855 173.99548 37097 ft 542 kts 60°
2026-05-05 11:37 54.62195 174.11182 37119 ft 543 kts 60°
2026-05-05 11:38 54.65524 174.22815 37111 ft 542 kts 62°
2026-05-05 11:38 54.68624 174.34543 37128 ft 541 kts 62°
2026-05-05 11:39 54.71715 174.46391 37141 ft 541 kts 62°
2026-05-05 11:39 54.74809 174.58144 37123 ft 539 kts 61°
2026-05-05 11:40 54.77935 174.69916 37116 ft 537 kts 62°
2026-05-05 11:40 54.81057 174.81639 37114 ft 538 kts 62°
2026-05-05 11:41 54.84159 174.93260 37129 ft 535 kts 61°
2026-05-05 11:41 54.87286 175.04935 37145 ft 535 kts 60°
2026-05-05 11:42 54.90405 175.16521 37135 ft 531 kts 60°
2026-05-05 11:42 54.93541 175.28128 37156 ft 532 kts 60°
2026-05-05 11:43 54.96674 175.39664 37153 ft 530 kts 60°
2026-05-05 11:43 54.99817 175.51211 37155 ft 528 kts 60°
2026-05-05 11:44 55.02782 175.62889 37170 ft 531 kts 62°
2026-05-05 11:44 55.05670 175.74674 37150 ft 528 kts 62°
2026-05-05 11:45 55.08548 175.86304 37166 ft 527 kts 62°
2026-05-05 11:45 55.11468 175.98001 37181 ft 528 kts 62°
2026-05-05 11:46 55.14386 176.09648 37178 ft 524 kts 61°
2026-05-05 11:46 55.17309 176.21265 37200 ft 524 kts 61°
2026-05-05 11:47 55.20237 176.32860 37175 ft 522 kts 60°
2026-05-05 11:47 55.23158 176.44400 37197 ft 520 kts 60°
2026-05-05 11:48 55.27560 176.61678 37208 ft 521 kts 60°
2026-05-05 11:48 55.30518 176.73216 37159 ft 518 kts 60°
2026-05-05 11:49 55.33460 176.84657 37200 ft 520 kts 60°
2026-05-05 11:49 55.36257 176.96408 37192 ft 521 kts 63°
2026-05-05 11:50 55.38943 177.08079 37202 ft 519 kts 62°
2026-05-05 11:50 55.41659 177.19768 37194 ft 516 kts 62°
2026-05-05 11:51 55.44392 177.31415 37207 ft 518 kts 62°
2026-05-05 11:51 55.47124 177.43015 37184 ft 515 kts 61°
2026-05-05 11:52 55.49866 177.54607 37202 ft 514 kts 61°
2026-05-05 11:52 55.52622 177.66226 37200 ft 513 kts 62°
2026-05-05 11:53 55.55374 177.77780 37194 ft 513 kts 61°
2026-05-05 11:53 55.58145 177.89360 37209 ft 515 kts 61°
2026-05-05 11:54 55.60916 178.00891 37184 ft 512 kts 61°
2026-05-05 11:54 55.63708 178.12427 37228 ft 513 kts 60°
2026-05-05 11:55 55.66472 178.23969 37198 ft 512 kts 62°
2026-05-05 11:55 55.69140 178.35616 37205 ft 511 kts 59°
2026-05-05 11:56 55.72021 178.47069 37229 ft 513 kts 60°
2026-05-05 11:56 55.74652 178.58818 37192 ft 512 kts 63°
2026-05-05 11:57 55.77139 178.70528 37208 ft 512 kts 64°
2026-05-05 11:57 55.79646 178.82362 37201 ft 513 kts 63°
2026-05-05 11:58 55.82151 178.94133 37179 ft 512 kts 63°
2026-05-05 11:58 55.84678 179.05930 37211 ft 512 kts 63°
2026-05-05 11:59 55.87197 179.17635 37191 ft 509 kts 63°
2026-05-05 11:59 55.89727 179.29341 37224 ft 508 kts 63°
2026-05-05 12:00 55.92259 179.41023 37210 ft 507 kts 63°
2026-05-05 12:00 55.94792 179.52655 37218 ft 505 kts 63°
2026-05-05 12:01 55.97341 179.64293 37235 ft 505 kts 62°
2026-05-05 12:01 55.99901 179.75909 37209 ft 504 kts 63°
2026-05-05 12:02 56.02481 179.87570 37240 ft 505 kts 63°
2026-05-05 12:02 56.04873 179.99332 37329 ft 505 kts 65°
2026-05-05 12:03 56.07150 -179.88982 37242 ft 499 kts 65°
2026-05-05 12:03 56.09460 -179.77264 37281 ft 502 kts 65°
2026-05-05 12:04 56.11793 -179.65526 37231 ft 498 kts 65°
2026-05-05 12:04 56.14116 -179.53897 37251 ft 498 kts 65°
2026-05-05 12:05 56.16448 -179.42294 37250 ft 498 kts 65°
2026-05-05 12:05 56.18790 -179.30675 37232 ft 496 kts 65°
2026-05-05 12:06 56.21133 -179.19110 37251 ft 497 kts 65°
2026-05-05 12:06 56.23490 -179.07516 37243 ft 495 kts 65°
2026-05-05 12:07 56.25858 -178.95943 37231 ft 493 kts 65°
2026-05-05 12:07 56.28214 -178.84506 37227 ft 491 kts 64°
2026-05-05 12:08 56.30583 -178.73062 37221 ft 490 kts 64°
2026-05-05 12:08 56.32804 -178.61458 37221 ft 493 kts 66°
2026-05-05 12:09 56.34912 -178.49797 37225 ft 491 kts 68°
2026-05-05 12:09 56.37042 -178.38126 37215 ft 492 kts 67°
2026-05-05 12:10 56.39190 -178.26486 37243 ft 493 kts 67°
2026-05-05 12:10 56.41345 -178.14856 37221 ft 489 kts 66°
2026-05-05 12:11 56.43510 -178.03252 37244 ft 490 kts 66°
2026-05-05 12:11 56.45688 -177.91625 37237 ft 488 kts 66°
2026-05-05 12:12 56.47855 -177.80101 37230 ft 488 kts 66°
2026-05-05 12:12 56.50046 -177.68514 37249 ft 489 kts 66°
2026-05-05 12:13 56.52237 -177.56973 37234 ft 487 kts 66°
2026-05-05 12:13 56.54442 -177.45460 37241 ft 486 kts 65°
2026-05-05 12:14 56.56662 -177.33940 37239 ft 486 kts 66°
2026-05-05 12:14 56.58791 -177.22392 37222 ft 486 kts 68°
2026-05-05 12:15 56.60762 -177.10661 37244 ft 488 kts 68°
2026-05-05 12:15 56.62730 -176.98979 37235 ft 484 kts 68°
2026-05-05 12:16 56.64719 -176.87318 37239 ft 484 kts 68°
2026-05-05 12:16 56.66710 -176.75754 37248 ft 484 kts 68°
2026-05-05 12:17 56.68726 -176.64090 37237 ft 484 kts 68°
2026-05-05 12:17 56.70735 -176.52519 37242 ft 484 kts 67°
2026-05-05 12:18 56.72765 -176.40887 37247 ft 483 kts 67°
2026-05-05 12:18 56.74786 -176.29355 37229 ft 482 kts 68°
2026-05-05 12:19 56.76832 -176.17770 37233 ft 482 kts 67°
2026-05-05 12:19 56.78887 -176.06224 37231 ft 481 kts 67°
2026-05-05 12:20 56.80959 -175.94636 37220 ft 481 kts 67°
2026-05-05 12:20 56.83415 -175.83460 37219 ft 475 kts 60°
2026-05-05 12:21 56.86097 -175.72444 37244 ft 479 kts 62°
2026-05-05 12:21 56.88696 -175.61365 37205 ft 475 kts 62°
2026-05-05 12:22 56.91288 -175.50224 37234 ft 478 kts 62°
2026-05-05 12:22 56.93881 -175.39093 37227 ft 477 kts 62°
2026-05-05 12:23 56.96470 -175.28020 37213 ft 477 kts 62°
2026-05-05 12:23 56.99085 -175.16890 37230 ft 477 kts 62°
2026-05-05 12:24 57.01708 -175.05774 37222 ft 476 kts 62°
2026-05-05 12:24 57.04337 -174.94676 37227 ft 476 kts 62°
2026-05-05 12:25 57.06977 -174.83575 37228 ft 477 kts 62°
2026-05-05 12:25 57.09611 -174.72533 37214 ft 474 kts 62°
2026-05-05 12:26 57.12278 -174.61417 37235 ft 475 kts 61°
2026-05-05 12:26 57.14932 -174.50421 37222 ft 475 kts 61°
2026-05-05 12:27 57.17606 -174.39327 37212 ft 475 kts 62°
2026-05-05 12:27 57.20113 -174.28096 37220 ft 478 kts 64°
2026-05-05 12:28 57.22601 -174.16836 37212 ft 476 kts 63°
2026-05-05 12:28 57.25109 -174.05621 37204 ft 475 kts 63°
2026-05-05 12:29 57.27650 -173.94379 37220 ft 476 kts 63°
2026-05-05 12:29 57.30192 -173.83142 37204 ft 474 kts 63°
2026-05-05 12:30 57.32748 -173.71919 37223 ft 476 kts 63°
2026-05-05 12:30 57.35310 -173.60686 37214 ft 476 kts 63°
2026-05-05 12:31 57.37782 -173.49409 37208 ft 476 kts 63°
2026-05-05 12:31 57.40244 -173.38032 37223 ft 477 kts 63°
2026-05-05 12:32 57.42708 -173.26662 37213 ft 477 kts 64°
2026-05-05 12:32 57.45176 -173.15329 37211 ft 476 kts 64°
2026-05-05 12:33 57.47661 -173.03958 37224 ft 477 kts 64°
2026-05-05 12:33 57.50140 -172.92654 37212 ft 476 kts 63°
2026-05-05 12:34 57.52645 -172.81279 37223 ft 476 kts 63°
2026-05-05 12:34 57.55157 -172.69913 37224 ft 476 kts 63°
2026-05-05 12:35 57.57657 -172.58643 37218 ft 476 kts 63°
2026-05-05 12:35 57.60193 -172.47266 37218 ft 476 kts 62°
2026-05-05 12:36 57.62734 -172.35954 37208 ft 475 kts 62°
2026-05-05 12:36 57.65286 -172.24632 37207 ft 476 kts 63°
2026-05-05 12:37 57.67700 -172.13226 37204 ft 477 kts 65°
2026-05-05 12:37 57.70003 -172.01642 37213 ft 478 kts 65°
2026-05-05 12:38 57.72317 -171.90074 37203 ft 477 kts 65°
2026-05-05 12:38 57.74661 -171.78465 37206 ft 477 kts 65°
2026-05-05 12:39 57.76999 -171.66956 37208 ft 478 kts 64°
2026-05-05 12:39 57.79361 -171.55376 37204 ft 478 kts 64°
2026-05-05 12:40 57.81752 -171.43700 37215 ft 479 kts 64°
2026-05-05 12:40 57.84117 -171.32191 37201 ft 477 kts 65°
2026-05-05 12:41 57.86515 -171.20577 37212 ft 479 kts 64°
2026-05-05 12:41 57.88924 -171.08963 37210 ft 478 kts 64°
2026-05-05 12:42 57.91330 -170.97418 37199 ft 479 kts 64°
2026-05-05 12:42 57.93775 -170.85780 37214 ft 481 kts 64°
2026-05-05 12:43 57.96218 -170.74168 37195 ft 479 kts 64°
2026-05-05 12:43 57.98695 -170.62508 37212 ft 481 kts 64°
2026-05-05 12:44 58.01099 -170.50850 37210 ft 481 kts 64°
2026-05-05 12:44 58.03487 -170.39198 37195 ft 480 kts 64°
2026-05-05 12:45 58.05896 -170.27484 37203 ft 481 kts 65°
2026-05-05 12:45 58.08323 -170.15730 37190 ft 481 kts 64°
2026-05-05 12:46 58.10746 -170.04050 37187 ft 481 kts 64°
2026-05-05 12:46 58.13199 -169.92288 37207 ft 483 kts 64°
2026-05-05 12:47 58.15657 -169.80534 37194 ft 482 kts 64°
2026-05-05 12:47 58.18128 -169.68777 37199 ft 484 kts 64°
2026-05-05 12:48 58.20613 -169.57004 37190 ft 483 kts 64°
2026-05-05 12:48 58.23121 -169.45192 37182 ft 482 kts 63°
2026-05-05 12:49 58.25632 -169.33456 37202 ft 484 kts 64°
2026-05-05 12:49 58.28089 -169.21609 37174 ft 485 kts 66°
2026-05-05 12:50 58.30369 -169.09515 37206 ft 488 kts 66°
2026-05-05 12:50 58.32647 -168.97406 37189 ft 488 kts 66°
2026-05-05 12:51 58.34938 -168.85352 37185 ft 487 kts 66°
2026-05-05 12:51 58.37249 -168.73283 37196 ft 488 kts 66°
2026-05-05 12:52 58.39568 -168.61235 37189 ft 487 kts 65°
2026-05-05 12:52 58.41904 -168.49147 37185 ft 487 kts 65°
2026-05-05 12:53 58.44248 -168.37073 37186 ft 488 kts 65°
2026-05-05 12:53 58.46598 -168.25017 37181 ft 489 kts 66°
2026-05-05 12:54 58.50175 -168.06787 37172 ft 489 kts 65°
2026-05-05 12:55 58.52562 -167.94716 37181 ft 489 kts 65°
2026-05-05 12:55 58.54979 -167.82576 37160 ft 489 kts 65°
2026-05-05 12:56 58.57307 -167.70363 37178 ft 491 kts 67°
2026-05-05 12:56 58.59502 -167.58017 37177 ft 492 kts 67°
2026-05-05 12:57 58.61702 -167.45766 37166 ft 491 kts 66°
2026-05-05 12:57 58.63953 -167.33414 37178 ft 492 kts 67°
2026-05-05 12:58 58.66217 -167.21091 37166 ft 493 kts 67°
2026-05-05 12:58 58.68498 -167.08719 37154 ft 492 kts 67°
2026-05-05 12:59 58.70793 -166.96356 37183 ft 494 kts 66°
2026-05-05 12:59 58.73021 -166.83900 37164 ft 492 kts 68°
2026-05-05 13:00 58.76265 -166.65262 37179 ft 495 kts 68°
2026-05-05 13:01 58.80654 -166.40265 37164 ft 495 kts 67°
2026-05-05 13:01 58.82870 -166.27753 37163 ft 495 kts 68°
2026-05-05 13:02 58.85107 -166.15222 37143 ft 494 kts 68°
2026-05-05 13:02 58.87340 -166.02811 37163 ft 495 kts 67°
2026-05-05 13:03 58.89594 -165.90250 37140 ft 494 kts 68°
2026-05-05 13:03 58.91680 -165.77670 37155 ft 497 kts 69°
2026-05-05 13:04 58.93729 -165.64987 37145 ft 497 kts 69°
2026-05-05 13:04 58.95797 -165.52243 37147 ft 497 kts 69°
2026-05-05 13:05 58.97868 -165.39574 37150 ft 497 kts 69°
2026-05-05 13:05 58.99961 -165.26842 37133 ft 496 kts 70°
2026-05-05 13:06 59.02051 -165.14215 37147 ft 497 kts 69°
2026-05-05 13:06 59.04176 -165.01436 37136 ft 498 kts 69°
2026-05-05 13:07 59.06289 -164.88791 37130 ft 498 kts 69°
2026-05-05 13:07 59.08432 -164.76042 37138 ft 498 kts 69°
2026-05-05 13:08 59.10584 -164.63322 37133 ft 497 kts 69°
2026-05-05 13:08 59.12763 -164.50566 37137 ft 497 kts 69°
2026-05-05 13:09 59.14934 -164.37921 37128 ft 497 kts 69°
2026-05-05 13:09 59.16907 -164.25003 37115 ft 498 kts 72°
2026-05-05 13:10 59.18784 -164.12094 37116 ft 498 kts 72°
2026-05-05 13:10 59.20681 -163.99203 37092 ft 497 kts 72°
2026-05-05 13:11 59.22602 -163.86319 37097 ft 498 kts 71°
2026-05-05 13:11 59.24542 -163.73413 37086 ft 498 kts 71°
2026-05-05 13:12 59.26502 -163.60443 37074 ft 498 kts 71°
2026-05-05 13:12 59.28471 -163.47492 37076 ft 499 kts 71°
2026-05-05 13:13 59.30444 -163.34590 37070 ft 499 kts 71°
2026-05-05 13:13 59.32441 -163.21613 37052 ft 499 kts 71°
2026-05-05 13:14 59.34439 -163.08716 37052 ft 500 kts 71°
2026-05-05 13:14 59.36474 -162.95717 37043 ft 500 kts 71°
2026-05-05 13:15 59.38517 -162.82761 37029 ft 500 kts 71°
2026-05-05 13:15 59.40401 -162.69704 37025 ft 500 kts 73°
2026-05-05 13:16 59.42227 -162.56567 37036 ft 501 kts 72°
2026-05-05 13:16 59.44098 -162.43514 37020 ft 500 kts 72°
2026-05-05 13:17 59.46019 -162.30316 37045 ft 503 kts 72°
2026-05-05 13:17 59.48142 -162.17357 37029 ft 500 kts 70°
2026-05-05 13:18 59.50247 -162.04330 37056 ft 503 kts 71°
2026-05-05 13:18 59.52320 -161.91277 37037 ft 500 kts 71°
2026-05-05 13:19 59.54385 -161.78285 37052 ft 502 kts 71°
2026-05-05 13:19 59.56480 -161.65179 37046 ft 502 kts 70°
2026-05-05 13:20 59.58578 -161.52145 37018 ft 501 kts 70°
2026-05-05 13:20 59.60689 -161.39116 37028 ft 502 kts 70°
2026-05-05 13:21 59.62810 -161.26106 36980 ft 500 kts 71°
2026-05-05 13:21 59.64951 -161.13049 36992 ft 501 kts 70°
2026-05-05 13:22 59.67097 -161.00047 36966 ft 501 kts 70°
2026-05-05 13:22 59.69260 -160.87064 36961 ft 501 kts 70°
2026-05-05 13:23 59.71443 -160.74040 36972 ft 503 kts 71°
2026-05-05 13:23 59.73410 -160.60762 36941 ft 501 kts 73°
2026-05-05 13:24 59.75284 -160.47492 36957 ft 503 kts 72°
2026-05-05 13:24 59.77182 -160.34238 36930 ft 500 kts 73°
2026-05-05 13:25 59.79094 -160.21057 36926 ft 502 kts 73°
2026-05-05 13:25 59.81035 -160.07783 36929 ft 503 kts 72°
2026-05-05 13:26 59.82993 -159.94481 36914 ft 503 kts 72°
2026-05-05 13:26 59.84952 -159.81241 36929 ft 503 kts 72°
2026-05-05 13:27 59.86921 -159.68022 36934 ft 502 kts 72°
2026-05-05 13:27 59.88914 -159.54733 36950 ft 501 kts 72°
2026-05-05 13:28 59.90910 -159.41513 36953 ft 503 kts 72°
2026-05-05 13:28 59.92929 -159.28271 36939 ft 503 kts 72°
2026-05-05 13:29 59.94965 -159.15001 36932 ft 504 kts 73°
2026-05-05 13:29 59.96772 -159.01476 36932 ft 504 kts 75°
2026-05-05 13:30 59.98486 -158.88005 36939 ft 503 kts 75°
2026-05-05 13:30 60.00216 -158.74620 36941 ft 502 kts 74°
2026-05-05 13:31 60.01989 -158.61085 36966 ft 504 kts 74°
2026-05-05 13:31 60.03763 -158.47678 36956 ft 503 kts 74°
2026-05-05 13:32 60.05565 -158.34142 36968 ft 505 kts 75°
2026-05-05 13:32 60.07373 -158.20644 36937 ft 504 kts 75°
2026-05-05 13:33 60.09191 -158.07185 36944 ft 504 kts 74°
2026-05-05 13:33 60.11015 -157.93773 36942 ft 504 kts 74°
2026-05-05 13:34 60.12868 -157.80249 36930 ft 504 kts 74°
2026-05-05 13:34 60.14738 -157.66757 36932 ft 504 kts 74°
2026-05-05 13:35 60.16606 -157.53323 36928 ft 504 kts 75°
2026-05-05 13:35 60.18225 -157.39708 36938 ft 504 kts 77°
2026-05-05 13:36 60.19781 -157.25986 36932 ft 504 kts 77°
2026-05-05 13:36 60.21350 -157.12399 36916 ft 502 kts 77°
2026-05-05 13:37 60.22953 -156.98734 36925 ft 503 kts 77°
2026-05-05 13:37 60.24560 -156.85173 36910 ft 502 kts 76°
2026-05-05 13:38 60.26185 -156.71571 36903 ft 503 kts 76°
2026-05-05 13:38 60.27831 -156.57893 36907 ft 505 kts 76°
2026-05-05 13:39 60.29487 -156.44234 36914 ft 505 kts 76°
2026-05-05 13:39 60.31171 -156.30461 36913 ft 506 kts 77°
2026-05-05 13:40 60.32852 -156.16826 36922 ft 505 kts 76°
2026-05-05 13:40 60.34565 -156.03122 36906 ft 504 kts 76°
2026-05-05 13:41 60.36275 -155.89423 36906 ft 505 kts 77°
2026-05-05 13:41 60.37731 -155.75728 36918 ft 505 kts 78°
2026-05-05 13:42 60.39166 -155.61824 36918 ft 505 kts 78°
2026-05-05 13:42 60.40625 -155.47998 36914 ft 505 kts 78°
2026-05-05 13:43 60.42109 -155.34186 36917 ft 505 kts 79°
2026-05-05 13:43 60.43606 -155.20383 36903 ft 504 kts 78°
2026-05-05 13:44 60.45113 -155.06627 36897 ft 503 kts 78°
2026-05-05 13:44 60.46639 -154.92873 36900 ft 506 kts 78°
2026-05-05 13:45 60.48188 -154.79079 36896 ft 506 kts 78°
2026-05-05 13:45 60.49979 -154.65321 37046 ft 504 kts 73°
2026-05-05 13:46 60.50975 -154.58609 37160 ft 507 kts 74°
2026-05-05 13:46 60.51930 -154.51691 37256 ft 508 kts 76°
2026-05-05 13:46 60.53674 -154.37959 37413 ft 506 kts 76°
2026-05-05 13:47 60.55379 -154.24066 37591 ft 507 kts 77°
2026-05-05 13:47 60.57086 -154.10191 37793 ft 508 kts 77°
2026-05-05 13:48 60.58801 -153.96382 37993 ft 507 kts 77°
2026-05-05 13:48 60.59658 -153.89531 38095 ft 508 kts 77°
2026-05-05 13:48 60.60534 -153.82559 38203 ft 508 kts 76°
2026-05-05 13:49 60.61413 -153.75603 38309 ft 508 kts 76°
2026-05-05 13:49 60.62285 -153.68727 38412 ft 509 kts 76°
2026-05-05 13:49 60.63175 -153.61739 38516 ft 509 kts 76°
2026-05-05 13:49 60.64056 -153.54845 38627 ft 509 kts 76°
2026-05-05 13:50 60.65848 -153.40904 38745 ft 509 kts 76°
2026-05-05 13:50 60.67638 -153.27095 38764 ft 506 kts 77°
2026-05-05 13:51 60.69450 -153.13237 38776 ft 508 kts 76°
2026-05-05 13:51 60.71284 -152.99417 38761 ft 507 kts 76°
2026-05-05 13:52 60.73024 -152.85524 38756 ft 507 kts 78°
2026-05-05 13:52 60.74638 -152.71594 38729 ft 507 kts 78°
2026-05-05 13:53 60.76223 -152.57680 38745 ft 506 kts 78°
2026-05-05 13:53 60.77841 -152.43639 38770 ft 508 kts 77°
2026-05-05 13:54 60.79480 -152.29680 38791 ft 506 kts 78°
2026-05-05 13:54 60.81116 -152.15756 38821 ft 506 kts 78°
2026-05-05 13:55 60.82504 -152.01756 38829 ft 504 kts 81°
2026-05-05 13:55 60.83792 -151.87656 38827 ft 505 kts 80°
2026-05-05 13:56 60.85155 -151.73564 38816 ft 505 kts 79°
2026-05-05 13:56 60.86549 -151.59491 38825 ft 507 kts 80°
2026-05-05 13:57 60.88086 -151.45489 38789 ft 507 kts 72°
2026-05-05 13:57 60.90615 -151.32042 38879 ft 513 kts 69°
2026-05-05 13:58 60.93309 -151.18582 38777 ft 509 kts 70°
2026-05-05 13:58 60.96773 -151.06203 38814 ft 492 kts 51°
2026-05-05 13:59 61.01551 -150.96597 38856 ft 479 kts 42°
2026-05-05 13:59 61.04060 -150.92018 38874 ft 485 kts 42°
2026-05-05 14:00 61.11567 -150.77934 38780 ft 488 kts 45°
2026-05-05 14:00 61.13806 -150.72684 38774 ft 482 kts 56°
2026-05-05 14:00 61.15549 -150.66801 38872 ft 484 kts 66°
2026-05-05 14:01 61.17857 -150.53764 38827 ft 485 kts 74°
2026-05-05 14:01 61.19644 -150.40547 38774 ft 477 kts 78°
2026-05-05 14:02 61.20939 -150.27040 38859 ft 481 kts 84°
2026-05-05 14:02 61.21701 -150.13399 38798 ft 476 kts 88°
2026-05-05 14:03 61.21904 -149.99721 38837 ft 474 kts 94°
2026-05-05 14:03 61.21514 -149.86153 38841 ft 476 kts 98°
2026-05-05 14:04 61.20535 -149.72786 38802 ft 469 kts 104°
2026-05-05 14:04 61.18961 -149.59732 38834 ft 470 kts 109°
2026-05-05 14:05 61.16775 -149.47005 38786 ft 468 kts 115°
2026-05-05 14:05 61.14052 -149.34938 38784 ft 464 kts 121°
2026-05-05 14:06 61.10801 -149.23471 38805 ft 465 kts 126°
2026-05-05 14:06 61.07081 -149.12721 38755 ft 460 kts 131°
2026-05-05 14:07 61.02929 -149.02747 38786 ft 460 kts 136°
2026-05-05 14:07 60.98395 -148.93636 38788 ft 459 kts 141°
2026-05-05 14:08 60.93476 -148.85402 38775 ft 455 kts 146°
2026-05-05 14:08 60.88264 -148.78154 38808 ft 455 kts 150°
2026-05-05 14:09 60.82783 -148.71843 38809 ft 453 kts 155°
2026-05-05 14:09 60.77103 -148.66454 38801 ft 451 kts 159°
2026-05-05 14:10 60.71274 -148.61912 38828 ft 451 kts 162°
2026-05-05 14:10 60.65297 -148.58209 38810 ft 450 kts 166°
2026-05-05 14:11 60.59240 -148.55347 38820 ft 448 kts 170°
2026-05-05 14:11 60.53162 -148.53290 38809 ft 447 kts 173°
2026-05-05 14:12 60.46987 -148.51945 38811 ft 447 kts 176°
2026-05-05 14:12 60.40833 -148.51276 38812 ft 447 kts 179°
2026-05-05 14:13 60.34640 -148.51209 38808 ft 446 kts 181°
2026-05-05 14:13 60.28490 -148.51706 38811 ft 445 kts 184°
2026-05-05 14:14 60.22375 -148.52733 38803 ft 445 kts 186°
2026-05-05 14:14 60.16240 -148.54253 38819 ft 445 kts 188°
2026-05-05 14:15 60.10165 -148.56210 38816 ft 445 kts 190°
2026-05-05 14:15 60.04137 -148.58546 38829 ft 445 kts 192°
2026-05-05 14:16 59.98101 -148.61197 38838 ft 445 kts 193°
2026-05-05 14:16 59.92119 -148.64104 38829 ft 444 kts 194°
2026-05-05 14:17 59.86190 -148.67235 38836 ft 444 kts 195°
2026-05-05 14:17 59.80275 -148.70546 38840 ft 445 kts 196°
2026-05-05 14:18 59.74345 -148.73969 38844 ft 445 kts 196°
2026-05-05 14:18 59.68435 -148.77449 38833 ft 445 kts 197°
2026-05-05 14:19 59.62544 -148.80942 38827 ft 445 kts 197°
2026-05-05 14:19 59.56641 -148.84430 38832 ft 445 kts 197°
2026-05-05 14:20 59.50744 -148.87871 38807 ft 444 kts 196°
2026-05-05 14:20 59.44816 -148.91280 38346 ft 447 kts 196°
2026-05-05 14:21 59.41863 -148.92964 37727 ft 440 kts 196°
2026-05-05 14:21 59.39000 -148.94591 37651 ft 422 kts 196°
2026-05-05 14:21 59.36229 -148.96153 36903 ft 424 kts 196°
2026-05-05 14:21 59.33398 -148.97729 36333 ft 417 kts 196°
2026-05-05 14:22 59.30654 -148.99229 35842 ft 410 kts 195°
2026-05-05 14:22 59.27918 -149.00697 35074 ft 409 kts 195°
2026-05-05 14:22 59.25348 -149.02725 34471 ft 402 kts 213°
2026-05-05 14:22 59.23283 -149.06325 33838 ft 399 kts 232°
2026-05-05 14:23 59.21975 -149.10983 33052 ft 403 kts 250°
2026-05-05 14:23 59.21541 -149.16333 32401 ft 407 kts 269°
2026-05-05 14:23 59.22078 -149.21759 31748 ft 411 kts 289°
2026-05-05 14:23 59.23381 -149.26628 31063 ft 413 kts 299°
2026-05-05 14:24 59.24993 -149.31210 30315 ft 412 kts 303°
2026-05-05 14:24 59.26703 -149.35629 29667 ft 404 kts 304°
2026-05-05 14:24 59.28445 -149.39854 28940 ft 400 kts 308°
2026-05-05 14:24 59.30383 -149.43680 28222 ft 404 kts 316°
2026-05-05 14:25 59.32603 -149.47107 27387 ft 410 kts 323°
2026-05-05 14:25 59.34978 -149.50150 26562 ft 415 kts 327°
2026-05-05 14:25 59.37474 -149.52975 25614 ft 419 kts 330°
2026-05-05 14:25 59.40031 -149.55659 24660 ft 421 kts 332°
2026-05-05 14:26 59.42590 -149.58231 23654 ft 422 kts 332°
2026-05-05 14:26 59.45227 -149.60820 22611 ft 424 kts 333°
2026-05-05 14:26 59.47912 -149.63420 21575 ft 440 kts 334°
2026-05-05 14:26 59.50623 -149.66020 20543 ft 442 kts 333°
2026-05-05 14:27 59.53385 -149.68668 19893 ft 432 kts 333°
2026-05-05 14:27 59.56023 -149.71194 19842 ft 434 kts 333°
2026-05-05 14:27 59.58820 -149.73875 19899 ft 453 kts 333°
2026-05-05 14:27 59.61645 -149.76578 19864 ft 456 kts 333°
2026-05-05 14:28 59.64482 -149.79289 19825 ft 455 kts 333°
2026-05-05 14:28 59.67342 -149.82021 19823 ft 454 kts 333°
2026-05-05 14:28 59.70147 -149.84698 19833 ft 456 kts 334°
2026-05-05 14:28 59.73072 -149.87491 19875 ft 469 kts 334°
2026-05-05 14:29 59.75985 -149.90268 19865 ft 471 kts 334°
2026-05-05 14:29 59.78914 -149.93059 19859 ft 472 kts 334°
2026-05-05 14:29 59.81878 -149.95880 19880 ft 470 kts 334°
2026-05-05 14:29 59.84798 -149.98657 19858 ft 470 kts 334°
2026-05-05 14:30 59.87774 -150.01482 19864 ft 469 kts 334°
2026-05-05 14:30 59.90697 -150.04251 19854 ft 470 kts 334°
2026-05-05 14:30 59.93606 -150.07008 19827 ft 469 kts 334°
2026-05-05 14:30 59.96558 -150.09805 19812 ft 468 kts 334°
2026-05-05 14:31 59.99500 -150.12596 19797 ft 468 kts 334°
2026-05-05 14:31 60.02416 -150.15373 19794 ft 468 kts 334°
2026-05-05 14:31 60.05337 -150.18254 19798 ft 469 kts 333°
2026-05-05 14:31 60.08212 -150.21144 19807 ft 468 kts 333°
2026-05-05 14:32 60.11128 -150.24086 19803 ft 468 kts 333°
2026-05-05 14:32 60.14009 -150.26987 19795 ft 470 kts 333°
2026-05-05 14:32 60.16941 -150.29935 19810 ft 470 kts 333°
2026-05-05 14:32 60.19839 -150.32843 19811 ft 471 kts 333°
2026-05-05 14:33 60.22742 -150.35753 19809 ft 470 kts 333°
2026-05-05 14:33 60.25687 -150.38701 19810 ft 470 kts 334°
2026-05-05 14:33 60.28591 -150.41609 19828 ft 470 kts 334°
2026-05-05 14:33 60.31491 -150.44511 19844 ft 470 kts 334°
2026-05-05 14:34 60.34421 -150.47447 19861 ft 470 kts 334°
2026-05-05 14:34 60.37331 -150.50359 19859 ft 470 kts 334°
2026-05-05 14:34 60.40247 -150.53275 19863 ft 470 kts 334°
2026-05-05 14:34 60.43183 -150.56213 19877 ft 471 kts 334°
2026-05-05 14:35 60.46111 -150.59142 19887 ft 471 kts 334°
2026-05-05 14:35 60.48989 -150.62022 19749 ft 458 kts 334°
2026-05-05 14:35 60.51748 -150.64775 19498 ft 425 kts 334°
2026-05-05 14:35 60.54296 -150.67314 19178 ft 390 kts 333°
2026-05-05 14:36 60.56621 -150.69630 18778 ft 357 kts 333°
2026-05-05 14:36 60.58758 -150.71764 18274 ft 332 kts 333°
2026-05-05 14:36 60.60772 -150.73776 17566 ft 323 kts 333°
2026-05-05 14:36 60.62763 -150.75763 16498 ft 325 kts 333°
2026-05-05 14:37 60.64751 -150.77745 15616 ft 319 kts 333°
2026-05-05 14:37 60.66712 -150.79698 14755 ft 314 kts 333°
2026-05-05 14:37 60.68642 -150.81618 13869 ft 311 kts 333°
2026-05-05 14:37 60.70582 -150.83551 12946 ft 309 kts 333°
2026-05-05 14:38 60.72489 -150.85452 12073 ft 307 kts 334°
2026-05-05 14:38 60.74365 -150.87320 11341 ft 300 kts 334°
2026-05-05 14:38 60.76215 -150.89162 10639 ft 296 kts 334°
2026-05-05 14:38 60.78040 -150.91028 9824 ft 295 kts 333°
2026-05-05 14:39 60.79832 -150.92896 9172 ft 290 kts 333°
2026-05-05 14:39 60.81644 -150.94589 8420 ft 286 kts 348°
2026-05-05 14:39 60.83526 -150.95035 8190 ft 262 kts
2026-05-05 14:39 60.85293 -150.94907 8138 ft 244 kts
2026-05-05 14:40 60.86945 -150.94641 7791 ft 244 kts
2026-05-05 14:40 60.88608 -150.94341 7514 ft 237 kts
2026-05-05 14:40 60.90272 -150.94038 7083 ft 240 kts
2026-05-05 14:40 60.91909 -150.93817 6652 ft 245 kts
2026-05-05 14:41 60.93645 -150.93686 6090 ft 250 kts
2026-05-05 14:41 60.95354 -150.93613 5819 ft 247 kts
2026-05-05 14:41 60.97072 -150.93568 5504 ft 246 kts
2026-05-05 14:41 60.98760 -150.93535 5352 ft 238 kts
2026-05-05 14:42 61.00370 -150.93506 5252 ft 228 kts
2026-05-05 14:42 61.01921 -150.93478 5178 ft 219 kts
2026-05-05 14:42 61.03446 -150.93407 4816 ft 223 kts 11°
2026-05-05 14:42 61.04857 -150.92323 4605 ft 210 kts 36°
2026-05-05 14:43 61.06012 -150.90489 4213 ft 213 kts 46°
2026-05-05 14:43 61.07031 -150.88358 4113 ft 204 kts 51°
2026-05-05 14:43 61.07962 -150.86171 3812 ft 206 kts 53°
2026-05-05 14:43 61.08871 -150.83903 3606 ft 204 kts 54°
2026-05-05 14:44 61.09750 -150.81659 3502 ft 195 kts 54°
2026-05-05 14:44 61.10563 -150.79587 3501 ft 180 kts 54°
2026-05-05 14:44 61.11345 -150.77623 3477 ft 173 kts 54°
2026-05-05 14:44 61.12114 -150.75717 3532 ft 173 kts 54°
2026-05-05 14:45 61.12884 -150.73828 3558 ft 174 kts 54°
2026-05-05 14:45 61.13664 -150.71921 3549 ft 174 kts 53°
2026-05-05 14:45 61.14447 -150.69998 3529 ft 173 kts 53°
2026-05-05 14:45 61.15227 -150.68091 3523 ft 173 kts 53°
2026-05-05 14:46 61.15997 -150.66208 3524 ft 174 kts 54°
2026-05-05 14:46 61.16609 -150.64084 3507 ft 169 kts 75°
2026-05-05 14:46 61.16836 -150.61713 3559 ft 168 kts 88°
2026-05-05 14:46 61.16876 -150.59299 3533 ft 167 kts 92°
2026-05-05 14:47 61.16865 -150.56941 3497 ft 164 kts 92°
2026-05-05 14:47 61.16859 -150.54579 3504 ft 164 kts 92°
2026-05-05 14:47 61.16856 -150.52199 3525 ft 167 kts 92°
2026-05-05 14:47 61.16853 -150.49809 3513 ft 166 kts 92°
2026-05-05 14:48 61.16847 -150.47423 3501 ft 165 kts 92°
2026-05-05 14:48 61.16837 -150.45044 3504 ft 165 kts 92°
2026-05-05 14:48 61.16827 -150.42676 3510 ft 166 kts 92°
2026-05-05 14:48 61.16821 -150.40279 3489 ft 167 kts 92°
2026-05-05 14:49 61.16817 -150.37913 3372 ft 163 kts 92°
2026-05-05 14:49 61.16812 -150.35617 3185 ft 156 kts 92°
2026-05-05 14:49 61.16807 -150.33388 2993 ft 153 kts 93°
2026-05-05 14:49 61.16801 -150.31192 2785 ft 152 kts 92°
2026-05-05 14:50 61.16797 -150.29048 2581 ft 151 kts 92°
2026-05-05 14:50 61.16795 -150.26839 2367 ft 152 kts 92°
2026-05-05 14:50 61.16794 -150.24710 2156 ft 147 kts 92°
2026-05-05 14:50 61.16800 -150.22600 1975 ft 148 kts 91°
2026-05-05 14:51 61.16818 -150.20439 1766 ft 153 kts 91°
2026-05-05 14:51 61.16821 -150.18218 1617 ft 154 kts 91°
2026-05-05 14:51 61.16798 -150.15977 1331 ft 155 kts 94°
2026-05-05 14:51 61.16771 -150.13770 1122 ft 152 kts 91°
2026-05-05 14:52 61.16785 -150.11591 881 ft 152 kts 89°
2026-05-05 14:52 61.16781 -150.09398 638 ft 151 kts 94°
2026-05-05 14:52 61.16753 -150.07201 484 ft 154 kts 89°
2026-05-05 14:52 61.16775 -150.05043 276 ft 150 kts 90°
2026-05-05 14:53 61.16781 -150.02940 166 ft 134 kts 89°
2026-05-05 14:53 61.16784 -150.01627 165 ft 51 kts 90°
2026-05-05 14:53 61.16780 -150.01184 165 ft 23 kts 89°
2026-05-05 14:53 61.16792 -150.00832 165 ft 20 kts 82°
2026-05-05 14:54 61.16872 -150.00783 165 ft 14 kts 359°
2026-05-05 14:54 61.16989 -150.00786 165 ft 18 kts 360°
2026-05-05 14:54 61.17112 -150.00752 165 ft 15 kts 47°
2026-05-05 14:54 61.17128 -150.00503 165 ft 19 kts 91°
2026-05-05 14:55 61.17125 -150.00195 165 ft 23 kts 90°
2026-05-05 14:55 61.17127 -149.99829 165 ft 27 kts 88°
2026-05-05 14:55 61.17125 -149.99423 165 ft 29 kts 91°
2026-05-05 14:55 61.17142 -149.99019 165 ft 26 kts 56°
2026-05-05 14:56 61.17268 -149.98796 165 ft 19 kts 12°
2026-05-05 14:56 61.17390 -149.98866 165 ft 9 kts 336°
2026-05-05 14:56 61.17411 -149.98973 165 ft 9 kts 259°
2026-05-05 14:56 61.17387 -149.99106 165 ft 7 kts 249°